GFSNE_925_rhum_000.txt.gz
RH
59 61 71 76 78 80 84 86 90 93 82 70 75 70 67 70 66 63 68 64 63 62 60 63 68 62 67 73 81 80 88 91 91 90 90 91 86 79
63 64 67 71 75 81 86 86 87 89 91 71 70 72 74 71 68 69 68 68 66 64 62 61 63 65 60 62 71 88 94 92 92 90 90 86 82 71
66 62 69 71 76 80 82 85 85 84 91 75 74 74 78 86 80 74 70 69 71 66 64 61 63 64 68 70 72 93 93 92 92 93 86 83 74 74
62 68 76 78 81 82 84 84 85 85 88 87 79 81 80 83 90 87 77 76 79 77 69 64 68 67 83 79 80 95 94 97 96 93 86 78 75 75
67 75 80 79 74 75 82 86 85 85 87 87 83 81 84 83 86 91 93 92 86 85 83 77 81 73 92 94 100 98 99 98 94 94 86 79 77 77
78 65 60 61 67 82 88 88 89 89 86 85 84 78 78 78 88 96 96 98 98 96 96 92 89 100 100 100 98 100 100 100 99 94 86 81 80 79
54 47 54 51 60 75 61 62 78 88 86 88 86 84 87 85 93 86 97 95 96 91 100 97 100 100 100 100 100 99 100 99 98 99 88 81 81 80
51 48 56 59 72 57 52 69 81 91 93 93 91 90 86 86 87 90 95 97 97 91 100 99 100 100 100 100 100 99 98 99 98 90 84 78 80 80
44 44 49 65 68 54 61 70 76 83 86 93 95 86 88 87 94 94 88 96 91 96 100 98 100 100 100 100 98 98 98 99 96 90 82 81 80 78
51 50 63 74 69 68 71 76 77 81 83 89 92 91 93 97 98 99 99 98 100 100 100 98 100 98 100 100 100 99 99 100 97 83 81 82 80 79
57 59 69 71 75 73 73 80 86 84 84 90 94 96 99 99 98 100 97 99 98 99 100 94 100 100 100 100 100 99 99 99 82 75 77 79 80 78
59 66 74 71 70 70 74 83 90 85 94 95 96 96 99 100 100 100 100 98 99 99 99 94 99 96 97 98 99 99 100 81 70 73 75 76 80 78
68 73 69 68 68 73 76 87 94 93 93 97 99 99 100 99 99 100 100 100 100 100 98 93 98 98 97 96 97 98 86 68 70 71 74 80 78 77
81 72 73 70 77 80 77 87 91 95 95 97 98 97 99 99 99 100 100 100 100 96 100 98 97 97 96 94 88 70 60 61 70 74 76 70 72 71
71 77 67 81 71 73 76 84 93 98 98 96 96 96 99 100 99 99 99 99 98 98 99 99 96 97 95 93 84 78 71 63 53 50 48 46 45 56
87 68 76 66 67 70 75 82 92 98 100 98 98 98 100 98 98 97 98 98 97 97 97 97 98 76 87 74 77 92 68 72 67 63 60 63 60 56
61 75 77 73 76 81 80 84 88 95 98 99 99 98 99 98 97 97 97 97 97 96 97 96 88 64 56 61 89 73 79 77 74 76 75 64 54 52
68 78 81 79 84 83 84 90 88 92 98 98 98 99 98 97 97 97 97 97 96 96 96 100 96 78 59 67 85 84 89 85 73 70 78 83 75 62
75 85 81 81 86 86 87 95 92 94 100 98 98 98 98 97 98 97 97 97 97 97 100 100 93 87 87 73 55 95 77 81 82 84 80 85 79 70
79 83 81 82 86 93 91 90 93 97 98 98 98 98 97 98 97 97 97 97 95 98 100 97 88 78 87 80 90 53 95 96 82 66 67 70 75 86
84 79 79 81 86 96 88 93 95 97 98 98 98 97 97 97 97 97 97 94 90 94 100 99 98 97 94 92 88 73 57 65 73 76 85 89 87 91
83 85 84 86 96 93 92 96 96 97 97 98 97 97 97 97 97 97 92 93 91 89 94 98 93 90 91 96 96 94 81 80 79 84 99 98 92 98
90 93 90 95 94 94 96 97 97 97 98 97 97 97 97 97 96 89 90 87 83 82 71 72 74 80 88 90 91 93 90 91 89 89 88 96 100 100

GFSNE_925_rhum_003.txt.gz
RH
64 67 72 69 75 81 84 87 87 94 77 63 66 67 69 72 76 78 77 77 80 76 71 69 63 66 66 70 73 74 80 71 74 80 91 92 93 88
63 60 64 68 78 83 87 88 87 89 91 71 72 72 74 75 74 71 74 74 74 78 78 79 76 74 72 66 75 70 70 71 73 82 92 100 96 93
59 65 69 75 83 79 74 74 78 84 88 75 73 73 75 77 80 80 79 84 84 83 82 83 79 82 81 90 75 76 74 69 67 86 97 100 96 97
67 66 74 78 69 71 64 71 83 86 89 90 79 78 76 75 79 82 85 86 90 90 87 84 84 84 83 93 95 81 75 76 76 89 97 98 99 98
57 65 86 62 71 64 66 89 71 56 69 77 82 82 79 79 81 81 86 86 91 92 94 93 95 96 95 99 100 98 88 89 92 98 100 100 99 96
66 69 54 53 58 65 75 71 60 72 82 84 79 79 75 76 80 96 94 97 91 84 80 82 88 97 96 84 90 99 100 100 99 98 100 99 98 96
40 42 42 44 41 51 78 74 67 75 80 80 81 79 78 78 82 82 86 84 93 92 93 88 94 99 100 97 94 99 100 100 100 100 99 99 98 98
37 41 54 50 49 68 72 70 72 75 79 81 80 84 81 82 84 87 90 91 92 84 99 98 98 100 100 100 99 99 98 100 100 100 100 100 99 97
52 56 59 59 66 77 74 73 78 75 75 77 86 90 86 84 86 87 82 91 95 93 100 96 95 100 99 99 99 100 100 100 100 100 99 100 99 99
57 60 61 65 71 67 67 64 75 74 77 82 90 95 94 94 97 96 95 94 97 98 100 97 98 99 100 99 100 100 100 100 100 100 98 100 100 100
64 64 70 67 68 61 64 70 73 72 72 92 90 89 92 95 98 100 93 93 96 95 100 98 100 100 100 100 100 100 100 100 100 100 100 100 97 89
77 87 73 68 62 66 64 74 98 98 98 94 92 96 95 98 99 100 100 97 97 97 95 98 99 95 98 99 100 100 100 100 100 100 100 99 89 81
98 75 73 69 76 63 67 87 94 85 90 94 95 94 92 94 99 100 100 100 98 97 97 100 98 100 98 96 98 99 99 100 100 100 92 80 77 81
73 76 84 73 62 62 62 61 62 75 89 93 95 94 94 96 99 100 99 99 99 99 99 100 98 97 97 96 96 97 98 99 100 91 82 78 80 88
79 88 65 63 66 68 69 69 77 88 98 96 94 92 97 99 100 98 98 98 97 97 98 98 98 97 97 96 95 96 96 92 76 71 72 76 78 76
99 71 62 67 71 72 79 82 87 87 89 95 95 98 98 95 99 99 98 97 97 96 97 97 97 97 96 97 95 95 94 87 77 69 68 66 60 60
70 66 66 76 78 79 80 81 82 85 89 88 97 97 95 93 97 97 97 97 97 96 96 97 95 90 88 92 94 92 92 90 76 66 63 69 62 55
64 71 79 80 81 82 84 82 85 83 88 95 97 97 96 96 97 97 97 97 97 96 96 96 96 92 71 78 70 86 77 81 85 75 72 72 70 59
74 83 83 79 82 84 84 91 89 89 95 96 98 97 97 97 97 97 97 97 96 96 96 96 88 83 73 73 66 75 78 80 81 88 81 81 80 66
87 89 83 82 82 85 90 92 92 92 95 96 97 97 97 97 97 97 97 96 96 96 96 93 81 86 84 78 84 81 91 80 82 80 72 79 75 70
88 81 81 88 90 91 95 93 95 95 96 96 97 97 98 98 97 97 97 96 93 94 96 98 100 96 83 75 72 76 58 68 69 67 67 80 91 96
81 84 88 90 93 95 94 95 95 95 96 96 97 98 97 97 97 97 96 93 92 92 96 100 100 92 83 88 93 94 81 87 92 98 96 89 90 97
89 93 96 96 96 95 95 96 96 96 96 98 98 97 97 97 97 95 91 87 85 81 76 81 79 85 91 90 95 96 93 92 94 96 98 99 96 98

GFSNE_925_rhum_006.txt.gz
RH
74 58 65 70 74 81 89 88 89 89 78 64 66 66 71 75 78 76 79 85 82 81 90 90 88 91 89 93 93 86 83 84 80 80 78 81 80 88
52 53 65 68 76 87 78 81 76 80 85 62 64 70 74 78 77 78 78 76 72 68 71 81 91 93 97 91 98 89 86 84 82 83 76 79 82 90
47 51 62 67 84 70 78 70 66 76 91 71 53 46 57 71 80 82 78 78 85 86 83 72 79 91 94 99 98 99 90 91 88 86 85 78 81 92
54 64 73 70 57 64 63 54 70 79 67 78 65 65 73 71 73 79 78 79 85 89 91 91 94 99 98 95 97 99 100 100 97 95 92 85 80 95
64 49 41 49 48 49 50 55 67 79 77 75 76 75 76 72 78 78 75 70 81 85 87 90 84 80 88 89 100 96 100 100 95 81 99 98 84 94
54 44 41 43 52 58 54 58 74 80 78 80 78 77 76 74 72 75 74 74 78 79 88 87 93 82 78 94 96 98 100 100 99 99 91 100 95 99
50 50 53 57 58 56 63 67 70 72 68 80 86 76 73 77 80 74 80 81 80 78 84 88 92 97 93 91 98 97 84 97 99 100 92 99 99 100
57 58 58 61 61 66 66 63 62 64 63 67 81 79 75 73 82 87 90 89 90 75 79 91 87 95 93 96 94 87 89 83 85 96 99 100 99 100
63 64 65 66 71 75 71 66 67 68 63 64 72 78 78 82 98 90 83 92 91 81 81 86 84 94 88 93 96 96 98 91 88 99 100 100 100 100
66 69 71 88 82 68 67 85 97 70 72 82 88 99 95 100 87 86 97 98 97 96 93 96 87 96 95 88 95 96 96 94 99 100 100 100 100 100
70 70 90 83 70 66 89 87 69 88 75 76 80 79 82 79 85 95 97 97 96 95 95 98 93 98 99 98 98 94 99 100 100 100 100 99 99 99
74 95 79 64 64 75 60 67 85 70 68 82 91 91 85 82 87 97 100 98 97 96 98 100 99 98 98 99 100 100 100 100 100 100 100 100 100 100
97 73 67 73 93 60 58 70 71 64 85 90 87 91 88 94 100 100 100 100 97 96 91 100 99 100 99 96 98 100 100 100 100 100 100 100 100 100
72 66 77 95 63 59 67 67 66 68 83 88 89 88 89 86 93 96 99 100 99 98 97 98 98 98 97 97 96 98 99 100 100 100 100 100 100 100
67 84 90 65 59 70 70 68 71 82 85 92 89 90 88 90 99 91 97 95 99 97 96 98 100 98 97 97 96 96 97 98 100 100 100 100 100 100
96 97 70 63 66 70 73 77 80 82 85 94 94 92 90 92 96 93 99 99 98 97 96 98 97 98 97 97 96 96 98 96 98 99 99 99 100 100
65 63 68 73 77 75 77 78 80 83 93 94 93 91 91 94 93 91 98 98 97 97 96 96 96 97 96 97 96 97 97 96 97 97 95 86 78 77
55 62 81 81 76 76 80 83 84 85 91 93 92 93 93 95 93 96 98 98 97 96 96 96 95 92 91 95 97 96 96 96 96 85 72 68 69 52
71 92 87 78 77 80 88 88 90 90 94 96 95 95 95 97 95 96 97 97 96 96 96 95 92 94 87 89 90 93 88 92 86 82 64 61 67 59
88 86 80 81 84 90 90 90 92 93 94 95 95 95 97 97 96 96 97 96 96 96 95 93 97 96 88 84 85 92 76 79 79 88 87 78 72 73
81 84 86 87 92 92 91 93 96 95 96 96 95 96 97 97 97 97 97 96 94 95 95 95 100 96 81 68 69 74 80 82 70 67 71 79 87 91
86 90 91 92 94 94 95 96 95 95 95 96 96 97 98 98 98 98 96 95 96 95 95 93 85 84 77 81 93 95 87 87 90 90 77 83 84 97
95 94 93 93 95 96 96 96 96 96 96 96 97 98 99 100 97 96 94 91 88 82 80 82 80 84 95 95 95 96 96 97 97 96 100 96 97 98

GFSNE_925_rhum_009.txt.gz
RH
54 51 48 52 66 73 82 84 70 84 62 43 44 46 62 60 48 47 55 74 82 84 85 84 88 93 93 89 88 88 86 86 100 95 96 88 84 84
45 46 55 60 67 70 61 60 67 64 72 51 49 59 64 56 51 54 51 46 59 72 77 75 82 90 92 92 92 92 98 96 98 96 99 95 94 87
48 52 62 56 45 47 55 54 52 50 65 55 63 70 61 57 60 65 64 55 70 71 68 68 67 86 90 92 98 93 97 95 99 99 100 100 97 95
51 60 56 46 44 44 47 52 59 60 62 75 79 65 62 67 70 72 70 72 70 67 68 79 68 60 76 85 86 88 95 99 100 99 100 96 95 93
52 56 50 48 50 52 58 61 64 66 69 72 71 66 68 68 68 70 73 71 73 71 70 70 80 78 70 69 80 92 94 92 97 97 96 97 95 98
53 54 53 55 54 61 63 65 66 69 69 72 69 63 62 64 66 64 67 67 73 75 82 82 72 72 79 86 91 94 90 86 89 95 100 96 98 90
57 58 58 60 64 64 65 70 72 71 72 69 70 72 66 63 66 67 74 74 77 96 78 77 78 80 86 78 89 97 94 89 84 82 98 99 100 99
63 63 61 64 66 68 71 68 64 74 80 95 75 72 70 75 77 82 83 90 96 71 77 86 86 84 80 76 80 84 92 94 95 92 96 91 92 93
62 64 67 67 71 84 78 66 91 76 63 65 75 87 75 77 95 97 98 88 83 79 89 91 96 96 93 88 86 84 87 87 92 96 96 96 97 97
63 65 68 76 84 66 67 99 69 59 63 72 67 69 77 86 77 84 83 93 92 85 84 97 88 86 85 98 95 90 84 84 92 92 95 99 96 91
66 67 82 76 63 64 98 72 66 66 65 66 65 68 70 72 75 88 93 94 87 80 80 90 96 98 99 98 92 91 94 92 94 95 99 100 100 100
75 83 70 59 62 97 69 64 68 70 77 70 74 75 79 82 80 84 99 97 95 89 79 93 87 90 97 99 94 98 99 92 91 100 99 100 99 99
91 72 64 66 98 80 59 61 68 66 71 75 81 82 83 80 83 86 99 99 97 94 86 96 92 84 93 93 95 98 100 100 100 100 100 100 100 94
72 67 79 98 64 61 59 63 64 66 77 84 83 83 83 85 86 91 95 100 99 99 99 99 94 90 95 95 92 98 100 100 100 100 100 100 100 100
73 92 62 52 55 64 64 61 67 79 83 87 86 85 85 88 92 93 91 99 95 98 98 96 99 97 97 94 92 93 98 99 100 100 100 100 100 100
92 58 55 55 67 68 66 69 75 79 82 91 91 91 88 88 89 87 96 91 96 92 98 96 97 98 95 97 96 93 98 95 99 100 100 100 100 100
56 59 61 75 73 69 70 73 77 81 86 88 90 90 89 87 87 87 96 95 94 93 94 98 96 97 98 98 93 96 96 97 98 99 98 98 99 100
61 65 76 78 75 74 76 80 82 82 89 92 93 92 92 93 93 95 97 97 94 94 94 97 98 96 96 97 98 96 97 96 97 98 98 95 97 98
69 79 78 78 80 80 83 86 88 88 93 95 94 94 94 94 93 95 96 97 93 94 95 97 92 88 92 91 96 98 94 98 98 97 94 85 86 89
78 84 85 83 83 86 89 90 92 93 94 95 94 95 95 96 95 95 96 94 94 93 89 92 92 92 86 84 84 97 95 86 76 72 75 78 76 77
85 85 84 86 89 90 92 93 95 95 95 96 95 96 96 97 96 96 95 90 86 87 87 88 98 99 78 72 75 80 98 72 64 71 78 68 68 76
85 88 89 90 92 94 95 96 95 94 95 95 96 96 98 99 97 93 90 86 86 87 87 93 80 81 89 77 79 81 85 97 78 62 71 73 78 80
92 92 93 93 94 96 96 96 95 95 96 96 97 98 99 95 89 81 75 74 76 78 83 80 93 96 95 92 88 88 93 93 94 95 99 97 98 98

GFSNE_925_rhum_012.txt.gz
RH
29 34 35 36 39 44 47 47 50 62 54 44 38 30 27 30 36 53 55 49 46 54 57 51 56 71 80 78 81 84 91 92 90 91 88 98 96 78
30 34 37 38 45 41 37 35 39 43 49 40 40 41 40 47 52 49 46 52 58 59 56 60 63 60 67 69 77 90 92 86 95 96 94 93 95 95
33 34 38 39 43 38 38 38 39 41 49 49 51 49 45 43 43 44 48 51 51 50 55 64 59 66 73 83 78 80 88 89 95 95 98 98 98 97
35 36 38 38 40 41 41 42 45 46 50 62 53 50 51 51 52 48 48 49 50 50 50 54 60 66 73 75 86 72 77 74 90 93 96 97 100 99
38 40 42 43 44 44 45 48 49 51 61 61 62 60 58 54 55 58 55 48 52 56 56 54 62 71 73 83 70 75 79 92 83 84 89 93 93 97
44 46 47 47 47 51 53 54 58 64 61 62 67 66 63 58 53 53 53 58 63 63 66 70 68 78 70 73 80 82 94 77 90 94 92 92 93 88
48 47 47 50 55 56 58 63 72 64 67 72 72 65 54 53 56 60 61 60 69 66 79 70 65 71 74 74 74 80 80 77 85 93 92 96 88 97
48 47 46 47 48 58 63 66 58 70 86 90 77 64 56 58 60 62 69 75 81 67 64 70 68 76 77 74 80 88 89 87 88 92 87 87 92 93
48 47 47 47 58 64 62 56 68 81 68 62 66 63 62 66 70 80 84 77 75 69 72 82 78 82 77 78 75 79 88 96 94 94 88 84 87 92
48 49 50 61 64 57 56 77 88 62 56 55 56 70 87 78 67 73 85 89 87 79 76 96 78 77 74 94 95 93 96 98 98 95 97 96 98 100
51 52 66 62 55 53 91 98 71 62 52 57 66 64 61 64 71 87 90 90 86 76 72 92 85 90 93 75 78 93 99 100 100 98 99 100 100 96
59 66 55 55 61 78 75 54 83 63 71 74 65 63 68 72 71 78 93 94 90 88 71 96 83 86 85 72 93 86 87 74 99 100 100 96 99 100
84 65 60 62 69 56 53 59 65 63 66 66 68 73 73 74 76 80 88 96 94 92 80 94 92 88 84 85 76 78 86 93 100 100 100 100 100 97
70 66 70 67 54 53 58 65 57 61 66 73 75 76 77 80 84 84 88 92 96 97 96 100 97 91 88 86 82 74 93 99 100 100 100 100 100 100
65 80 64 54 54 60 63 57 60 66 73 81 82 82 81 84 88 88 90 91 91 97 98 100 99 96 95 90 86 91 98 98 100 100 100 100 100 100
89 80 54 53 54 58 58 60 65 69 78 88 90 90 88 85 86 84 94 91 94 92 98 96 96 99 94 95 96 95 99 98 99 100 100 100 100 100
72 59 54 56 62 63 63 65 68 73 84 89 93 91 88 86 88 91 94 95 96 94 94 98 96 96 98 98 94 97 96 98 99 100 99 99 100 100
62 58 62 69 69 68 68 71 75 81 91 94 93 92 93 93 93 94 97 97 94 93 93 95 96 96 96 96 98 96 97 98 98 99 98 92 98 100
63 69 72 72 72 74 75 79 87 92 96 95 94 94 94 94 94 95 96 95 93 94 92 93 88 93 93 92 96 98 95 98 98 97 96 90 92 100
70 75 74 74 76 79 82 89 93 93 94 94 94 95 95 95 95 95 95 95 88 80 81 85 89 92 94 94 91 97 96 98 96 95 96 98 98 98
74 75 76 80 82 84 88 95 95 95 95 96 95 96 95 96 91 89 85 79 77 76 76 82 94 96 78 91 86 92 95 91 91 86 91 87 79 69
76 81 83 84 86 90 95 95 95 94 95 95 95 95 96 93 84 74 65 64 67 70 74 84 96 92 82 71 79 80 77 85 92 84 73 75 60 64
85 87 89 88 90 96 96 96 95 95 96 96 96 95 96 86 75 68 64 83 92 92 92 92 94 89 82 76 77 77 82 76 77 86 100 98 90 72

GFSNE_925_rhum_015.txt.gz
RH
26 29 30 32 34 36 40 45 44 51 46 37 38 36 40 39 43 44 46 41 42 46 46 50 55 60 56 59 69 69 64 67 67 71 84 91 87 91
27 29 32 33 34 37 39 40 40 43 51 41 41 43 45 50 48 47 49 50 48 46 45 45 50 51 54 58 64 66 63 69 78 73 74 80 88 89
29 31 33 35 36 37 40 42 44 44 51 46 46 49 55 51 51 53 54 54 50 46 44 46 46 50 52 56 59 61 64 70 71 79 75 83 92 91
32 35 36 38 41 44 44 45 47 48 50 56 55 57 55 55 56 57 53 48 48 49 43 43 50 58 55 56 60 74 75 76 86 74 74 78 82 92
39 40 42 44 45 46 47 51 52 55 58 63 64 60 59 63 62 56 49 47 49 50 53 48 47 57 62 66 66 69 78 78 87 82 92 98 88 90
47 46 46 44 44 48 52 56 60 66 70 70 63 67 68 64 62 56 52 50 53 54 55 56 56 56 65 64 70 60 69 74 73 82 84 84 91 94
51 47 43 44 46 48 49 60 70 80 71 69 78 79 72 62 60 57 55 59 64 64 66 64 64 64 66 59 61 66 69 71 73 82 90 84 91 99
51 46 44 43 43 47 54 58 59 56 69 77 95 91 67 61 54 62 71 81 83 64 64 67 67 68 68 68 71 73 69 74 77 80 82 91 95 94
48 45 45 45 51 62 62 61 63 71 90 67 70 71 58 62 80 89 86 70 69 66 77 78 82 79 80 73 66 68 78 88 89 91 95 96 91 93
47 47 49 57 65 58 68 90 93 81 60 62 61 57 64 80 78 66 70 90 88 81 73 94 81 95 74 79 70 78 69 84 93 100 100 100 100 97
52 54 59 64 58 66 83 85 63 61 65 60 61 59 58 59 62 73 92 92 87 80 73 78 86 88 79 82 75 80 99 86 98 98 90 96 99 97
63 73 63 56 62 82 67 58 66 69 81 72 66 63 64 68 66 74 88 94 92 89 71 84 87 87 92 71 83 75 80 93 96 98 100 100 100 100
84 70 65 60 74 63 53 57 66 74 71 64 65 70 72 73 75 79 84 95 94 92 82 86 94 92 90 92 82 89 85 99 100 100 100 91 95 99
78 68 68 90 58 51 54 55 58 62 63 70 75 79 78 80 82 86 89 93 95 94 94 98 96 96 96 93 87 76 82 100 100 100 100 100 100 100
65 68 94 56 52 54 56 57 58 65 71 86 89 85 84 86 89 91 95 97 95 93 96 99 99 98 98 95 91 85 94 95 99 100 100 100 100 100
86 95 56 52 54 57 61 62 65 67 73 84 91 90 88 89 92 95 96 95 96 91 98 97 94 96 97 94 94 92 98 98 99 99 100 100 100 100
72 62 58 60 65 66 65 66 68 73 91 93 93 93 92 92 93 95 96 96 96 96 94 96 94 96 97 99 98 98 98 98 99 99 99 99 100 100
62 62 64 70 71 69 70 72 78 85 92 94 94 94 94 94 94 95 97 97 96 95 95 96 96 94 96 96 99 98 98 98 99 99 100 97 98 100
64 69 73 73 73 74 76 84 92 92 96 96 96 95 95 95 95 95 95 96 94 86 89 95 96 95 96 95 96 98 98 98 99 98 99 99 98 100
72 75 75 75 76 79 89 94 94 93 94 95 95 95 95 95 94 89 85 84 83 84 84 88 95 95 96 96 96 97 97 98 96 96 98 100 100 100
76 78 78 79 82 92 95 96 96 95 96 96 95 96 96 96 95 89 82 70 75 81 87 92 97 91 95 96 94 94 98 98 98 97 98 95 95 98
82 82 82 84 94 96 96 96 96 95 95 96 95 96 97 97 96 96 96 95 95 96 95 97 88 83 83 92 95 95 96 99 98 98 95 80 76 96
83 86 88 94 97 97 97 96 96 96 96 97 97 97 98 96 97 97 98 98 98 97 97 97 91 83 84 81 86 87 86 91 94 98 100 77 54 64

GFSNE_925_rhum_018.txt.gz
RH
24 26 28 33 34 36 38 41 50 59 54 45 44 44 46 45 45 53 51 49 48 47 50 51 53 51 48 52 53 49 49 54 56 65 72 62 62 79
26 28 32 35 37 39 40 43 46 51 60 47 49 50 47 50 55 52 54 53 54 54 51 47 46 46 48 47 50 44 48 53 55 57 59 58 58 78
31 35 39 40 41 44 45 49 51 50 60 54 50 50 57 59 57 59 59 61 59 55 49 47 45 44 45 48 54 55 58 55 57 55 60 60 60 80
41 46 47 48 48 48 50 49 53 53 54 59 61 66 62 63 62 63 66 63 62 52 48 46 45 46 55 52 48 48 52 57 60 72 70 77 80 81
52 56 56 54 52 50 48 51 52 56 65 76 72 72 70 65 67 69 68 60 56 49 46 50 52 55 54 53 57 57 56 65 82 78 68 83 76 72
61 61 59 55 50 50 50 52 54 66 68 75 78 88 71 77 90 79 63 56 52 57 61 64 63 57 58 57 58 60 66 64 61 64 67 74 74 83
64 64 59 51 49 48 49 57 60 60 92 95 94 78 84 70 71 66 60 58 65 66 73 64 61 64 66 69 69 68 68 67 70 79 85 73 78 75
66 60 55 50 49 53 56 54 60 80 81 96 82 71 61 63 74 72 69 78 87 70 63 70 73 74 78 74 80 71 95 72 63 64 72 76 76 86
62 59 55 54 56 63 68 74 98 86 76 61 62 64 77 93 90 84 93 94 86 73 81 82 75 82 80 73 67 76 82 85 69 68 81 77 78 78
61 60 60 62 68 65 75 96 98 73 66 65 61 76 84 71 66 66 71 84 88 81 76 89 83 77 72 78 77 78 76 76 90 99 99 100 99 96
62 65 71 72 70 66 78 97 69 75 67 62 84 73 60 59 63 69 91 92 86 78 75 81 86 80 78 82 85 80 98 93 78 77 84 89 94 96
68 83 80 67 59 79 75 63 78 64 75 92 66 64 68 72 72 76 88 94 91 89 71 84 88 92 91 72 80 77 93 92 84 96 98 99 99 100
94 89 81 62 86 75 57 62 59 67 75 66 68 74 79 85 84 87 91 97 94 92 82 88 94 91 93 92 81 95 78 87 98 99 98 99 100 100
84 77 70 87 64 58 59 57 62 61 68 73 78 86 82 88 89 91 94 98 98 98 96 100 95 96 95 94 88 72 80 94 99 100 100 100 96 99
74 76 92 66 58 58 60 61 63 70 76 91 90 88 92 95 97 97 97 95 96 97 98 98 99 98 99 98 95 90 92 88 99 100 100 100 100 100
89 97 70 60 59 64 67 68 71 75 86 94 94 94 95 94 95 96 97 95 96 95 89 94 95 98 98 93 97 94 95 98 98 99 100 100 100 100
76 75 62 66 73 72 71 72 74 84 95 95 95 94 93 93 92 93 97 96 94 96 93 93 93 93 91 96 96 97 98 98 100 100 99 99 100 100
68 66 72 76 76 76 77 85 89 91 95 96 95 95 95 95 94 92 92 89 88 86 92 96 96 90 94 93 98 97 98 98 99 100 100 97 98 100
69 77 80 80 81 81 89 94 94 95 97 96 96 96 96 95 91 94 96 94 88 90 91 97 96 94 94 95 96 98 98 98 99 98 100 99 98 100
77 85 85 82 84 92 95 95 95 95 96 97 95 96 96 96 94 94 95 95 94 94 94 96 96 96 96 96 96 98 97 98 98 98 99 100 100 100
84 84 83 87 95 96 96 96 97 96 93 97 96 97 96 97 94 95 95 90 93 95 95 95 94 98 96 95 94 95 98 99 98 99 95 95 97 97
82 84 89 94 96 97 96 97 97 96 96 97 96 98 98 98 96 96 96 96 95 97 97 91 84 88 96 94 95 96 97 99 98 97 95 83 87 97
88 94 94 96 97 97 98 97 97 98 98 98 98 98 98 96 98 100 98 98 98 98 98 94 84 82 89 97 95 96 97 97 98 86 88 99 97 99

GFSNE_925_rhum_021.txt.gz
RH
27 29 31 34 39 41 43 47 53 67 57 49 51 49 52 50 49 52 56 56 51 53 53 53 53 54 57 51 48 48 49 53 48 56 52 48 53 49
33 35 39 42 47 49 49 51 52 56 69 52 51 52 51 54 60 58 58 58 58 56 55 55 55 62 51 55 49 57 47 48 50 51 57 60 66 68
37 45 51 54 57 57 57 56 58 58 62 54 53 55 58 67 62 64 67 65 65 65 60 62 53 49 49 47 47 49 53 57 58 56 53 62 72 70
45 53 58 62 64 63 60 59 56 55 57 61 61 72 72 66 69 75 69 76 80 78 60 54 50 48 48 52 52 56 60 52 54 57 60 50 55 78
51 59 62 66 67 65 61 58 56 58 65 79 82 66 73 85 92 95 70 67 64 58 53 51 49 53 58 65 58 53 54 59 62 57 57 68 89 82
53 58 63 68 67 61 56 56 60 63 63 65 76 90 76 83 73 58 55 58 68 66 60 61 64 70 58 57 59 62 64 65 65 62 57 70 70 69
54 60 64 63 59 55 56 58 60 68 88 96 94 93 71 62 60 60 68 94 73 72 77 83 73 65 69 70 70 69 71 70 83 85 75 70 79 73
56 60 63 63 60 58 60 61 65 72 90 97 95 78 65 66 67 79 86 89 88 69 70 76 72 74 75 75 72 73 73 62 64 71 89 80 71 68
56 60 64 64 67 74 75 71 78 82 94 70 70 72 72 72 95 95 84 83 85 82 81 82 74 78 78 71 71 67 66 74 79 80 76 71 67 63
58 62 66 74 85 72 73 76 96 90 76 74 70 70 91 86 66 68 80 92 90 80 72 87 73 76 74 75 74 72 83 88 94 87 89 92 90 90
65 68 79 79 75 59 71 99 94 88 67 65 84 76 62 63 67 83 93 93 86 75 73 81 84 84 81 82 80 78 78 79 80 77 75 75 77 75
76 91 82 68 58 82 89 80 78 64 84 90 66 68 72 76 77 83 95 94 92 90 68 86 90 90 91 74 77 72 77 80 83 90 89 86 86 86
94 85 79 67 94 65 61 61 63 72 73 70 73 77 81 82 82 90 97 98 94 92 82 93 93 91 92 91 81 81 84 89 89 98 99 100 100 98
82 74 77 97 62 60 62 63 64 68 72 78 83 85 83 90 94 97 98 98 99 98 97 99 97 97 94 92 88 74 83 96 99 98 99 99 98 100
79 85 88 66 62 66 68 67 69 77 90 94 89 88 90 96 99 98 97 96 97 94 96 98 98 97 98 95 94 89 93 87 98 100 100 99 100 100
94 86 68 62 68 70 72 74 79 89 93 94 94 93 95 96 96 97 97 96 97 85 82 93 98 98 97 99 100 93 96 97 95 100 100 100 100 100
69 70 66 74 78 76 75 77 82 89 94 94 95 95 94 94 94 94 97 96 95 93 90 91 93 87 92 99 97 96 96 97 99 100 100 99 100 100
70 70 78 83 82 80 82 88 88 88 94 96 95 95 95 95 95 95 94 96 95 93 94 96 96 87 83 85 98 97 98 98 99 100 100 97 98 100
74 81 86 83 84 86 91 94 93 92 96 96 97 96 96 96 91 94 94 95 93 94 96 99 97 96 95 95 92 99 98 98 100 98 99 99 97 100
82 86 85 85 89 94 95 95 95 95 96 97 96 97 97 97 95 93 94 95 95 94 93 92 96 97 96 96 97 97 99 99 98 98 99 100 100 100
85 86 87 92 96 96 96 96 97 96 96 98 96 97 97 97 94 95 96 90 93 95 95 95 99 99 97 90 94 95 98 100 100 100 99 97 97 97
87 90 93 95 97 98 98 98 97 97 97 98 97 97 98 98 97 97 96 96 96 97 97 89 87 96 96 93 96 96 97 99 100 100 99 98 99 97
96 97 97 97 98 99 99 98 99 98 99 98 99 98 100 97 98 98 99 98 98 97 98 91 83 92 98 98 93 96 94 96 98 98 100 100 100 100

GFSNE_925_rhum_024.txt.gz
RH
31 35 36 42 48 52 55 57 64 74 65 54 56 53 51 53 52 54 56 61 58 56 55 55 57 57 54 54 55 60 70 64 70 57 53 52 52 55
36 39 45 51 57 61 62 64 65 67 75 59 57 55 55 57 59 61 65 66 61 62 59 57 64 64 73 74 72 56 57 56 50 47 49 52 43 55
39 47 51 56 61 64 67 70 70 67 72 62 59 61 68 71 69 69 71 77 82 76 57 53 52 50 52 55 56 53 50 49 55 62 61 65 64 66
43 50 53 58 60 67 70 71 69 67 66 72 81 74 63 62 66 85 92 70 77 56 51 52 59 52 50 52 51 53 61 60 69 80 74 65 61 59
46 50 54 58 64 69 70 71 67 64 66 67 67 65 66 79 86 78 60 55 54 53 54 56 57 57 59 67 72 70 84 61 54 54 56 55 58 67
47 51 55 57 64 69 67 63 67 67 68 71 81 92 81 92 72 62 58 60 61 64 83 68 66 63 62 62 60 60 62 64 63 63 60 69 64 58
49 51 55 61 64 62 62 66 69 85 95 96 77 81 84 65 64 65 68 68 82 84 65 67 66 67 69 69 68 66 67 67 71 72 75 79 86 90
54 57 58 65 65 65 66 65 68 70 72 82 94 71 70 68 70 74 86 93 76 67 66 76 75 74 74 74 73 71 71 70 70 82 87 73 67 72
61 62 65 68 76 85 82 68 69 75 95 74 78 76 74 81 97 91 80 82 86 81 84 81 75 75 72 72 70 70 71 71 72 84 89 87 87 86
66 67 70 83 82 68 65 87 98 85 83 71 65 77 90 74 68 79 92 96 93 80 73 90 78 79 77 78 76 76 76 75 78 86 94 95 90 81
70 71 86 79 69 66 96 91 81 75 62 72 82 70 66 67 75 93 93 92 85 74 73 83 83 85 84 85 82 79 78 77 73 75 81 83 86 98
79 96 85 68 67 88 63 67 71 69 96 88 70 69 76 79 79 87 98 94 92 89 68 88 88 88 91 71 71 72 79 78 77 89 94 92 86 90
92 83 76 80 80 62 62 69 72 77 85 73 78 82 83 82 84 93 98 98 94 92 82 94 93 91 94 90 76 73 79 84 90 98 99 99 99 100
78 82 93 78 64 64 69 70 72 74 78 85 88 84 86 93 95 97 97 97 99 98 96 100 96 96 94 90 86 73 79 86 98 98 99 99 99 99
86 80 79 67 67 73 74 73 73 80 90 93 89 88 92 97 99 98 97 95 96 96 96 98 99 97 97 93 92 88 91 84 90 99 99 100 100 100
80 84 70 68 73 76 76 76 79 83 91 94 94 94 93 92 93 97 97 95 97 88 84 90 97 98 96 96 98 92 89 96 96 99 100 100 100 100
69 73 71 77 82 79 79 80 82 85 89 92 95 94 92 91 92 92 97 96 94 93 91 89 91 96 94 97 94 90 96 96 99 100 99 99 100 100
75 75 82 85 85 84 85 88 89 88 93 96 96 95 95 95 94 94 95 96 95 93 94 95 97 92 86 80 99 96 97 97 99 100 99 97 96 100
80 86 88 88 88 89 92 93 93 93 96 97 97 96 96 96 92 93 93 94 92 95 94 98 96 96 94 94 86 99 98 99 99 98 99 99 98 98
88 89 91 92 92 94 96 96 96 96 96 98 96 97 97 96 95 94 94 95 94 93 92 93 96 97 96 96 96 95 100 99 99 98 99 100 100 100
89 91 92 95 96 97 97 98 98 97 96 98 98 97 97 97 95 95 96 92 91 95 94 93 98 99 97 89 92 94 99 100 100 99 100 99 97 96
93 95 96 97 98 99 100 100 99 98 98 98 98 98 98 98 97 97 97 96 96 98 98 86 94 96 97 96 96 96 97 100 100 100 100 100 99 97
98 99 99 100 100 100 100 100 99 98 98 98 98 98 98 97 100 98 98 98 98 97 97 92 86 95 97 98 95 94 95 96 98 97 99 100 100 100

GFSNE_925_rhum_030.txt.gz
RH
33 34 38 42 47 51 55 59 74 80 63 52 60 60 65 67 64 63 65 67 64 61 57 56 56 59 64 58 54 52 55 71 73 64 66 71 69 67
38 41 43 45 48 51 55 60 64 80 85 63 66 68 68 70 71 62 62 64 64 64 64 64 73 64 60 53 53 53 56 62 70 68 70 65 74 76
44 46 47 47 49 52 56 61 68 77 86 74 71 71 78 73 68 69 72 74 77 75 85 64 60 54 52 59 68 69 68 72 73 72 80 78 67 78
48 49 50 52 55 57 60 65 72 77 84 86 82 76 70 72 75 82 92 85 84 79 56 55 55 55 56 60 70 71 69 69 68 66 69 66 62 65
53 55 58 60 61 62 68 74 75 82 90 86 75 74 77 79 96 86 72 60 58 58 59 60 61 64 69 76 76 74 73 75 79 73 69 70 74 78
62 63 60 59 66 70 72 69 72 72 73 78 79 84 96 81 67 64 63 65 66 70 76 73 70 67 64 62 64 63 64 65 65 66 69 70 70 63
64 59 60 68 72 69 68 71 71 75 82 95 90 85 72 66 69 68 71 75 88 74 71 71 72 70 71 74 72 70 71 72 71 72 78 80 84 81
65 64 66 71 74 74 73 69 69 88 97 84 79 72 72 72 72 79 95 85 85 72 74 87 82 80 78 75 73 74 73 72 72 73 74 84 78 80
64 67 71 78 79 82 80 81 88 86 71 69 73 74 74 79 98 94 87 89 86 82 88 90 79 78 74 73 71 74 75 75 76 79 82 87 80 78
66 69 76 82 84 78 79 99 85 75 74 72 72 83 97 83 76 83 98 97 92 80 73 91 78 78 76 77 76 76 77 75 76 82 85 86 88 88
67 76 82 78 75 70 95 84 74 77 69 75 89 78 72 76 82 94 92 93 85 75 75 80 80 83 83 83 81 78 73 71 72 76 78 75 75 76
72 69 77 74 69 90 68 72 79 74 92 96 74 73 80 84 84 86 94 95 90 89 67 89 88 90 88 66 66 74 76 81 82 84 88 88 94 99
69 77 88 76 82 67 67 74 79 87 84 78 83 84 87 86 89 94 98 98 95 92 83 94 93 90 93 90 76 77 77 80 92 98 99 99 99 99
76 86 78 78 71 70 74 78 78 78 82 86 89 88 89 93 96 100 100 100 100 97 96 100 96 96 93 89 86 76 80 88 95 96 99 99 100 99
80 74 76 76 72 78 81 80 80 85 88 94 91 91 94 98 100 99 96 95 96 95 94 96 99 98 98 94 93 89 95 86 89 94 98 100 100 100
82 82 79 73 79 81 83 83 85 86 90 95 95 96 98 96 97 96 99 97 98 88 84 88 97 98 96 94 97 94 93 96 95 100 100 100 100 100
74 81 78 84 88 86 85 86 86 89 94 96 97 97 96 95 95 94 98 97 95 91 90 88 91 96 92 95 96 88 95 96 99 99 99 98 99 100
83 84 89 91 91 90 91 91 93 93 96 98 99 98 97 97 96 95 97 97 95 92 93 93 97 93 81 70 87 97 91 97 98 99 99 98 95 100
89 94 94 94 94 95 96 96 96 96 99 100 100 99 98 97 96 95 95 95 92 91 95 94 97 95 93 93 72 73 98 97 98 97 98 98 98 100
94 96 96 96 97 98 98 98 98 98 99 100 99 98 99 98 96 95 95 95 94 94 91 89 93 97 96 96 96 87 97 99 98 97 97 99 98 96
96 97 98 99 100 100 100 99 99 97 97 97 98 98 98 98 96 96 97 92 93 94 94 92 89 97 92 86 86 86 95 98 99 99 98 96 93 89
98 100 100 100 100 100 100 100 98 98 98 98 98 98 98 99 97 97 97 96 95 97 98 93 82 86 94 100 96 95 95 95 92 99 99 99 98 97
100 100 100 100 100 100 100 100 99 100 98 98 99 99 99 98 100 100 99 100 98 99 98 93 89 87 89 96 92 92 95 96 98 96 97 99 99 99

GFSNE_925_rhum_033.txt.gz
RH
32 36 39 44 47 54 58 59 57 57 51 41 48 51 58 62 61 61 62 62 63 64 62 62 61 61 63 77 73 80 77 70 68 64 64 64 68 86
39 44 47 48 52 56 59 62 64 63 64 51 55 59 62 62 65 67 64 69 69 68 64 62 64 62 67 71 65 64 62 68 71 69 65 71 73 68
46 50 51 52 57 60 62 65 66 66 64 64 64 66 66 64 61 66 72 73 74 66 64 62 61 61 61 63 68 71 72 70 66 69 72 75 83 86
52 55 59 61 64 63 63 64 68 68 72 72 72 70 61 64 69 80 77 71 64 60 59 61 63 65 63 64 65 66 66 70 73 79 76 69 71 70
60 64 66 63 62 62 66 71 72 73 78 82 69 67 72 80 76 66 56 56 58 60 62 64 66 68 70 71 70 68 68 67 75 70 71 70 73 75
65 65 65 66 68 74 75 76 78 76 70 71 74 92 74 67 64 61 60 62 65 69 74 73 69 67 67 67 68 69 69 70 69 69 68 75 81 80
67 63 65 71 74 74 72 73 70 74 80 88 90 76 69 60 61 64 67 73 79 71 70 69 65 69 73 72 72 72 73 75 75 74 77 80 79 75
68 65 68 68 75 76 73 72 72 76 97 92 80 66 61 62 67 73 90 83 81 68 68 74 73 73 70 69 69 72 73 73 74 76 80 81 80 86
68 68 70 72 77 83 82 82 78 97 79 72 68 67 71 73 95 94 85 83 81 77 80 80 72 70 68 68 68 73 76 77 78 80 82 80 83 81
69 70 74 78 82 81 73 96 95 75 70 70 71 77 92 92 78 81 90 93 89 76 69 82 72 72 72 73 73 76 77 78 80 81 81 81 82 80
70 72 76 72 74 67 89 92 70 70 68 71 86 85 74 76 83 93 91 91 82 72 74 74 72 78 81 78 75 71 72 78 85 89 93 94 93 91
71 71 71 77 69 80 80 72 78 69 82 96 71 69 75 78 84 84 95 94 90 86 63 82 86 84 85 62 67 75 77 79 86 87 92 96 98 99
69 68 75 73 80 71 68 71 76 86 85 75 74 76 81 81 82 89 96 97 94 91 81 94 91 90 90 86 77 76 79 82 96 99 97 96 97 100
72 77 76 79 72 71 74 79 78 80 76 78 81 86 87 92 95 99 100 100 100 98 95 99 96 96 93 88 83 74 78 88 95 99 99 98 99 99
81 75 78 78 72 76 80 81 84 80 80 86 88 90 93 98 100 100 99 99 100 98 92 96 100 98 98 94 92 87 86 87 93 96 99 100 100 100
79 90 80 73 78 82 80 78 80 81 86 92 92 94 96 97 97 97 99 98 97 90 87 92 97 99 96 94 95 92 90 95 95 99 99 99 100 100
76 79 71 75 78 77 79 81 82 84 90 92 96 96 95 94 94 94 97 96 95 92 91 89 92 95 96 94 94 86 85 94 96 99 99 97 95 100
78 76 78 82 82 82 86 88 90 92 93 97 97 97 96 96 95 94 96 97 94 92 92 92 93 92 82 68 68 94 92 91 96 99 99 97 95 99
82 85 87 87 90 92 94 96 96 96 99 99 98 98 98 96 94 94 94 94 92 91 91 91 94 94 90 89 71 69 98 97 97 96 98 98 98 100
89 90 92 92 95 97 98 98 98 98 99 100 98 97 98 98 96 94 94 94 92 91 91 89 91 94 96 94 93 83 91 100 99 97 97 98 95 99
92 93 94 98 100 100 100 100 100 98 97 98 98 98 98 98 95 95 96 92 93 92 91 89 90 96 91 97 88 80 84 91 99 100 99 97 96 92
96 99 100 100 100 100 100 100 100 100 98 98 98 98 98 98 97 96 96 95 93 95 96 96 90 92 96 92 91 87 88 89 88 94 96 99 99 97
100 100 100 100 100 100 100 100 100 100 98 98 99 99 99 97 98 99 98 98 98 95 96 95 93 94 91 92 89 85 84 85 89 88 94 99 98 100

GFSNE_925_rhum_036.txt.gz
RH
35 38 39 37 39 41 43 44 43 44 38 30 30 33 38 44 48 51 52 54 58 61 63 64 67 64 60 61 68 76 66 67 71 63 70 74 73 67
35 39 41 40 42 43 44 45 46 45 46 37 36 40 44 48 50 51 51 56 58 61 62 60 62 63 67 67 65 66 67 66 70 73 74 66 66 65
41 44 45 46 46 44 44 46 46 46 45 46 45 47 52 51 48 52 55 60 57 52 55 57 61 64 67 68 70 71 76 78 80 75 74 74 72 71
44 47 47 46 49 45 45 47 47 51 53 53 56 57 54 52 58 65 55 50 46 48 53 60 64 64 66 68 72 73 73 72 78 80 79 79 77 77
48 51 51 49 47 48 50 54 55 55 58 66 65 57 56 67 61 57 50 47 50 52 54 58 62 66 70 69 68 67 68 69 73 74 74 70 71 77
52 56 55 52 51 55 57 58 54 60 61 58 64 68 86 65 54 48 48 53 56 60 64 63 62 62 64 63 64 68 70 70 71 72 74 73 76 75
50 52 51 55 69 72 69 63 61 64 75 80 76 89 65 54 46 50 58 62 71 64 62 62 57 61 65 64 64 64 65 68 70 75 78 83 78 81
49 49 50 55 56 65 66 68 73 88 96 95 85 64 52 48 56 64 77 90 74 63 61 70 68 66 65 63 61 64 68 70 74 75 77 78 81 80
53 52 52 53 60 61 66 68 80 78 82 71 67 55 54 61 78 94 80 75 74 72 74 74 65 62 63 63 65 68 73 76 82 84 85 86 84 84
54 56 57 59 59 64 69 79 88 69 56 59 58 61 70 87 88 75 81 84 85 75 66 75 68 68 68 69 70 73 75 77 80 86 90 92 93 90
55 55 59 60 61 68 79 97 62 56 55 56 67 79 80 69 73 83 90 87 82 72 72 71 70 76 78 76 71 63 67 71 80 84 93 97 99 99
53 54 54 62 65 76 86 62 63 55 61 85 76 59 60 64 71 74 83 94 89 86 63 79 86 80 81 62 66 76 76 77 78 80 86 97 99 100
57 53 56 61 71 72 69 66 63 70 83 70 61 63 67 70 73 79 88 98 95 91 81 92 91 88 89 84 76 76 78 82 83 87 92 93 95 99
59 65 64 71 73 71 70 71 75 80 70 66 69 75 80 85 90 95 98 100 100 100 99 100 95 95 93 88 82 74 76 84 89 94 98 99 99 98
74 75 73 72 71 65 66 77 78 68 68 75 84 85 87 91 96 96 96 97 98 99 98 98 99 98 97 93 90 86 87 87 90 94 99 100 100 100
73 74 66 66 60 65 63 64 67 70 76 84 88 88 91 92 92 93 95 95 94 90 89 92 95 99 96 93 91 90 90 94 89 97 99 99 100 100
74 64 59 56 61 61 63 68 71 74 82 85 92 92 91 90 92 93 94 95 93 89 89 89 91 95 95 97 96 89 83 86 90 94 99 97 94 100
73 62 60 65 66 68 72 77 82 86 89 94 96 94 94 93 93 92 93 95 93 88 88 90 92 89 81 76 71 84 86 91 92 96 99 98 94 96
68 69 71 72 73 77 83 88 92 91 97 97 97 96 96 96 92 93 93 93 90 89 88 89 92 92 92 88 69 70 88 95 96 94 92 98 98 98
73 75 76 76 79 86 91 95 96 96 96 98 97 97 97 96 95 94 93 93 92 89 88 86 87 92 96 94 94 86 77 96 98 96 94 97 96 96
75 77 78 82 89 93 96 98 98 98 97 97 97 98 97 97 95 94 94 90 90 90 89 86 87 92 99 98 94 79 76 81 89 99 100 97 96 88
79 83 86 92 96 98 100 100 99 99 98 98 98 98 98 98 96 96 94 95 91 92 92 91 90 94 92 86 88 86 82 81 81 85 96 99 99 98
89 93 96 99 100 100 99 99 99 99 99 98 98 98 98 97 98 97 97 96 96 95 91 88 86 85 87 84 84 83 83 84 82 82 82 98 99 100

GFSNE_925_rhum_039.txt.gz
RH
34 37 39 36 36 38 39 41 44 51 45 35 32 32 34 36 40 47 49 49 51 54 57 59 59 59 60 62 66 69 71 68 73 69 76 76 76 67
33 35 38 39 39 40 41 41 42 45 51 42 39 38 40 45 48 49 49 50 54 53 56 57 56 58 60 63 65 68 71 74 75 77 81 75 75 75
37 40 40 42 43 42 43 43 44 44 48 46 48 49 51 53 54 51 54 57 58 52 51 52 56 60 64 65 67 71 74 70 74 75 77 85 78 76
38 41 42 42 44 45 43 43 45 47 50 53 53 56 58 56 54 59 63 59 52 47 48 54 58 60 63 64 67 72 71 73 76 74 73 72 78 75
42 43 45 47 47 46 46 49 52 54 54 55 58 57 58 62 69 72 55 50 46 50 52 54 59 63 64 63 64 64 65 65 67 69 70 73 72 75
44 46 47 49 49 49 55 61 58 59 60 61 65 71 71 75 67 55 49 51 58 58 62 65 60 61 61 59 64 67 67 67 67 68 69 70 74 74
45 44 44 44 53 59 63 65 67 67 75 81 81 81 82 64 57 51 56 65 68 77 67 65 61 64 68 65 64 64 65 66 69 73 77 78 81 86
45 44 45 47 47 51 60 61 62 67 89 96 92 78 74 60 55 64 75 82 88 66 67 71 70 72 67 64 62 64 68 70 73 74 78 82 85 84
47 48 48 48 52 56 58 59 66 70 71 72 73 64 61 62 69 81 90 86 77 75 76 86 76 70 67 66 67 69 73 77 80 80 82 84 89 89
46 47 51 52 54 56 60 74 82 86 72 59 58 60 62 72 96 98 83 82 83 78 74 84 73 73 72 73 72 75 77 76 73 74 76 81 84 92
44 48 50 54 53 58 65 78 84 66 61 55 60 67 75 70 64 68 86 90 84 76 76 80 78 84 80 80 76 68 69 71 79 80 81 82 85 90
51 53 52 51 57 62 68 86 70 67 65 73 79 73 60 61 65 69 82 96 92 87 71 85 91 90 88 65 64 78 79 80 79 83 82 85 92 100
65 58 55 59 65 72 69 70 69 67 75 81 68 63 67 72 77 83 88 97 96 92 83 92 93 92 94 89 78 78 78 80 84 88 95 91 93 98
61 61 68 72 70 67 68 66 68 73 74 66 69 75 79 85 88 90 95 96 96 98 94 100 96 97 94 90 85 73 76 83 88 92 95 99 98 99
64 70 69 68 65 63 59 65 65 65 67 75 83 85 87 90 92 95 92 96 91 93 95 98 100 98 98 94 91 88 81 84 90 97 98 99 98 99
78 77 70 62 55 56 58 59 63 68 74 86 90 90 92 93 92 93 98 97 97 91 87 90 92 98 97 96 96 92 85 90 90 99 96 100 94 93
71 75 62 54 59 61 62 66 71 76 86 93 96 97 95 94 93 93 96 97 96 88 88 88 90 92 97 100 96 89 87 90 85 88 98 96 91 88
77 65 60 65 67 69 72 78 84 88 93 98 98 98 97 96 95 96 95 96 94 90 90 88 92 94 86 79 72 83 78 82 85 90 98 98 90 82
66 68 72 73 75 77 83 88 93 94 97 99 99 98 98 98 93 95 94 95 92 89 88 89 93 95 94 90 69 71 88 94 95 95 87 90 96 92
70 73 75 76 79 86 93 97 98 98 98 99 98 98 98 98 96 94 94 94 94 92 92 84 84 93 96 95 94 87 85 87 98 96 92 91 96 93
74 76 79 85 92 96 98 98 99 98 98 98 98 98 98 98 96 95 96 91 90 93 92 86 87 88 92 99 94 78 76 78 86 98 99 98 96 94
79 87 91 95 98 99 99 100 99 99 98 99 98 98 97 98 97 97 97 96 94 94 95 96 87 90 99 97 93 90 82 83 84 83 85 99 99 98
93 96 99 100 99 98 99 100 100 100 100 99 97 97 97 97 98 99 98 98 97 98 86 89 87 87 83 84 87 95 94 85 87 86 84 90 99 100

GFSNE_925_rhum_042.txt.gz
RH
32 34 36 37 36 36 38 40 48 60 54 43 42 37 39 40 44 49 51 51 54 56 58 58 58 60 59 58 61 61 67 75 78 81 80 82 75 74
31 33 35 38 40 40 42 42 43 49 60 47 48 47 47 50 52 55 55 58 55 57 58 58 58 59 58 61 63 68 72 75 78 83 78 82 76 76
34 37 39 40 42 43 44 45 45 44 57 52 51 54 55 56 56 58 56 59 63 62 58 57 54 57 60 62 64 68 70 75 74 78 80 83 75 80
37 39 41 43 45 45 46 46 47 49 54 61 61 60 60 60 60 63 69 74 67 57 54 52 58 60 61 65 66 67 69 69 70 74 75 72 73 76
41 42 43 46 48 49 50 50 56 61 63 67 69 68 67 71 76 78 79 61 55 52 55 58 60 68 68 66 65 64 66 68 67 67 69 71 73 74
46 45 45 45 46 48 52 56 63 66 69 73 76 83 84 89 81 77 67 59 59 65 65 74 76 68 67 64 69 72 72 71 70 69 71 75 79 79
46 45 45 44 49 52 54 56 60 66 69 79 83 76 77 77 78 75 65 67 67 72 82 74 69 72 74 72 74 72 72 70 71 72 76 76 75 80
50 49 47 48 48 52 56 58 60 62 72 79 86 90 85 76 66 69 72 76 82 80 74 78 74 77 79 79 74 72 73 73 74 78 79 78 83 88
50 48 48 48 52 52 55 59 60 68 71 71 80 75 67 66 66 75 83 94 92 82 82 84 78 80 77 75 76 78 76 80 81 80 80 81 81 81
48 45 46 49 52 56 56 61 67 73 81 76 67 66 66 69 83 99 95 85 85 84 80 88 78 78 79 81 79 80 79 80 74 74 77 81 83 84
53 54 56 58 55 56 62 68 85 89 76 69 67 71 74 74 70 70 88 88 84 78 80 85 82 92 88 85 69 65 73 72 81 82 82 83 84 86
66 66 65 60 60 63 67 86 97 76 70 72 79 74 70 66 71 75 81 96 93 86 73 87 92 94 87 69 66 73 76 83 82 83 83 88 91 93
69 66 63 64 66 75 73 69 70 65 70 79 71 71 72 76 80 83 89 98 96 92 84 93 94 93 93 91 80 79 80 78 82 84 89 93 94 93
67 67 69 74 71 67 66 64 64 67 64 68 72 78 85 90 91 92 94 95 95 100 97 100 97 98 94 90 85 75 78 83 88 88 91 88 94 96
70 74 75 74 72 64 59 63 64 63 68 76 88 92 93 94 97 100 94 97 97 97 94 92 98 99 98 94 91 90 84 86 88 92 88 96 98 94
85 84 80 70 61 62 65 65 68 73 79 85 91 95 98 99 99 99 99 99 98 93 88 88 92 97 97 97 96 92 88 94 88 91 93 93 96 90
73 77 69 64 72 73 74 75 79 84 90 94 98 98 98 97 97 96 99 97 97 92 90 88 88 88 93 99 97 92 91 92 93 92 90 94 90 91
72 68 71 78 80 80 81 85 89 92 96 99 99 99 98 98 97 98 98 99 96 92 92 90 92 96 88 80 81 96 98 97 93 92 94 97 93 81
70 72 77 81 83 84 88 94 98 99 100 100 100 100 99 98 95 97 97 96 94 91 90 94 98 96 94 89 69 71 90 96 93 94 88 90 94 89
75 76 79 84 89 95 99 100 100 100 100 100 100 98 98 98 97 96 96 96 95 94 94 88 91 96 96 95 94 88 87 86 96 96 93 89 90 89
79 82 88 94 98 100 100 100 100 100 100 99 99 99 98 98 96 97 97 92 92 94 93 89 89 92 93 97 95 80 77 80 85 96 98 97 90 89
88 92 96 99 99 100 100 100 100 100 100 100 98 98 98 98 97 97 97 96 95 96 96 98 92 92 97 94 93 90 86 85 86 86 86 95 99 97
90 95 97 99 98 98 98 98 100 100 100 97 98 97 98 97 98 99 99 98 99 97 98 95 92 91 92 95 96 93 91 88 89 90 85 74 78 90

GFSNE_925_rhum_045.txt.gz
RH
29 31 32 34 36 37 39 41 48 67 56 47 45 41 44 47 52 56 58 57 60 62 60 63 65 62 62 61 62 74 72 79 81 76 77 74 77 76
30 32 32 36 39 40 41 42 45 53 68 47 49 51 53 58 58 60 58 60 61 63 66 66 62 62 62 60 70 65 75 74 76 80 81 78 77 76
32 35 38 40 41 43 44 45 46 47 61 58 58 60 64 62 62 61 62 65 68 69 67 63 62 61 61 64 64 66 74 74 75 77 82 82 81 80
35 38 40 42 44 46 47 49 50 50 60 68 67 69 70 69 71 75 73 77 78 74 64 60 59 62 64 69 71 79 67 75 76 74 72 72 73 80
40 44 44 45 46 47 49 51 51 54 59 65 74 74 76 79 84 88 90 83 74 68 60 60 64 70 76 72 70 70 70 73 72 71 70 72 72 74
46 46 46 46 46 47 51 54 56 60 63 69 78 83 86 75 77 83 79 75 70 68 67 70 75 78 71 69 74 76 78 78 76 72 75 80 84 85
37 42 46 48 52 54 54 56 59 61 64 71 89 87 78 78 85 76 78 74 73 73 75 77 87 76 78 78 76 78 84 78 74 78 81 82 86 91
44 46 48 48 48 54 56 56 60 61 67 73 90 82 81 79 74 72 75 79 82 77 86 90 80 81 81 81 82 79 77 80 81 84 83 84 84 86
51 49 48 49 52 54 56 60 59 66 72 76 86 87 88 75 72 81 92 97 92 85 87 87 79 80 78 79 77 79 82 82 81 80 82 81 82 83
52 57 58 61 60 62 60 63 69 72 72 85 84 76 73 76 91 92 91 86 87 83 79 86 80 81 81 82 83 83 83 82 79 75 76 80 82 85
58 62 69 68 65 64 64 69 77 88 78 76 72 76 78 75 74 77 86 88 86 80 80 85 82 92 87 86 70 66 76 75 76 82 84 84 83 85
66 68 66 69 67 67 70 77 77 75 69 72 76 68 63 66 78 80 83 95 94 89 71 88 92 94 86 69 68 71 74 80 86 84 84 85 88 90
71 71 70 74 73 72 69 70 68 65 73 66 64 69 74 79 85 87 93 99 97 94 84 94 94 94 95 91 82 80 81 77 81 86 90 93 95 97
75 74 75 80 76 73 69 66 67 71 64 69 77 82 89 93 92 94 96 98 98 100 96 99 96 98 95 91 86 76 78 84 89 89 92 92 96 96
77 81 83 81 73 68 68 71 72 68 75 84 92 92 94 96 98 100 92 97 97 94 90 90 100 100 99 94 91 90 86 85 89 92 84 95 99 97
78 79 79 71 71 73 73 72 74 80 86 91 95 98 100 100 100 99 100 100 100 94 85 88 89 93 98 97 98 92 87 92 90 94 92 95 96 98
73 73 67 74 80 81 81 82 83 88 95 97 100 100 100 99 98 97 100 100 98 93 93 88 87 92 97 100 98 93 92 93 92 92 95 96 92 92
75 74 80 83 86 87 88 91 96 98 100 100 100 100 100 100 100 98 98 98 96 93 95 94 95 96 90 84 88 97 96 95 93 95 95 97 90 84
77 79 84 86 89 92 98 100 100 100 100 100 100 100 100 100 96 96 97 98 94 93 92 93 98 96 94 90 69 71 93 97 96 95 94 93 94 89
81 84 87 90 95 100 100 100 100 100 100 100 100 98 97 98 97 96 96 96 95 93 94 91 92 96 96 94 94 87 88 96 99 96 94 91 92 92
85 89 91 96 100 100 100 100 100 100 100 98 97 97 98 98 96 97 98 94 93 95 93 89 89 94 99 100 94 80 78 82 87 97 98 97 93 87
88 92 94 98 100 100 99 100 100 100 100 98 97 97 98 100 98 98 98 97 96 97 97 97 98 98 99 97 92 88 88 86 84 88 89 94 98 96
91 95 96 98 99 100 99 99 100 100 100 97 98 98 100 100 100 100 100 100 100 98 97 95 91 92 91 95 95 94 91 87 86 86 83 72 77 81

GFSNE_925_rhum_048.txt.gz
RH
27 28 28 31 33 35 37 40 46 62 62 46 43 42 45 50 53 62 62 60 63 64 68 69 68 68 66 64 61 65 78 71 76 70 72 74 76 76
28 29 31 32 36 39 41 42 45 52 71 50 47 48 52 54 58 63 65 71 67 72 70 71 69 68 66 66 72 69 71 77 74 79 73 80 76 74
31 32 35 38 40 41 43 45 47 50 68 57 55 54 60 63 65 67 60 63 64 72 74 72 71 68 66 65 65 68 68 75 79 76 74 80 79 76
33 35 38 42 42 44 46 48 49 50 55 66 63 63 67 69 72 72 73 71 78 80 80 72 68 67 68 70 71 75 83 74 71 74 74 71 67 77
40 44 45 46 47 48 48 49 49 52 55 66 74 70 72 72 77 79 82 82 76 78 70 69 69 74 78 76 73 73 72 74 72 72 70 74 75 75
53 48 46 46 48 47 52 55 57 60 62 65 72 76 76 80 77 80 82 75 75 74 74 77 78 80 76 76 78 79 80 80 79 77 76 82 79 86
34 37 42 48 57 58 56 57 59 59 61 65 80 82 92 83 81 81 82 78 77 78 75 78 76 87 84 83 81 79 84 86 80 78 82 80 84 90
38 43 46 46 48 61 63 60 59 62 66 75 83 92 91 86 85 87 82 87 87 76 86 86 83 83 82 81 83 83 81 80 80 78 83 84 83 88
46 50 55 57 57 57 58 64 65 68 71 74 85 89 94 84 81 87 96 100 92 87 88 86 81 82 80 81 80 80 82 84 84 83 79 78 84 90
50 57 63 68 67 71 68 66 66 72 78 83 86 82 76 82 95 89 83 84 89 84 82 87 79 82 80 78 82 84 85 86 84 81 77 75 78 80
62 67 72 73 72 71 68 72 86 78 72 76 76 79 81 77 73 79 86 92 88 83 82 87 85 84 85 85 69 60 80 78 76 79 82 83 82 84
70 70 70 75 73 73 74 77 76 70 67 76 76 68 60 63 79 81 85 97 96 90 69 82 89 93 86 67 68 67 76 77 86 87 86 84 85 85
76 75 73 80 81 78 72 72 72 69 76 74 64 67 71 77 81 85 91 100 99 95 86 95 94 95 95 91 82 81 81 78 76 82 91 92 93 93
78 77 81 94 79 75 73 74 74 78 70 72 83 88 92 91 87 92 88 95 97 100 97 98 96 99 95 91 87 77 78 85 89 93 91 93 97 97
80 80 87 81 75 74 77 79 82 72 80 89 96 96 94 96 94 98 92 92 94 89 91 91 100 99 99 94 92 90 90 85 88 92 90 92 96 97
78 81 78 73 73 77 76 74 78 85 92 94 96 99 100 100 100 99 100 100 100 93 81 88 93 96 99 99 98 93 90 93 87 93 97 98 96 95
81 71 66 73 78 81 83 85 87 92 97 98 100 100 100 100 100 98 100 100 99 95 93 87 87 94 99 100 99 96 94 94 94 96 98 97 93 95
78 77 80 83 88 92 95 96 94 97 99 100 100 100 100 100 100 100 99 99 97 94 95 94 96 98 89 83 93 100 96 96 94 95 97 96 93 90
80 83 86 89 92 96 100 100 100 98 99 100 100 100 100 100 98 98 98 98 95 94 94 94 98 97 94 90 70 72 93 98 97 96 94 92 94 90
81 87 91 93 96 100 100 100 100 100 100 100 99 98 98 100 99 97 97 97 96 94 94 91 93 96 96 94 94 86 87 96 98 96 94 92 92 92
86 91 93 95 100 100 100 99 100 100 100 99 99 98 96 98 97 99 99 95 94 95 93 90 87 93 98 100 94 80 77 79 86 98 98 98 90 87
91 94 93 96 99 99 98 99 99 100 98 100 100 99 98 99 98 99 99 97 96 96 96 95 97 98 99 97 92 88 87 85 85 86 89 97 98 96
93 95 95 95 96 96 97 97 97 97 98 100 100 98 100 99 100 100 100 99 98 98 95 94 92 92 90 95 94 94 92 87 87 88 88 74 81 84

GFSNE_925_rhum_051.txt.gz
RH
40 42 33 28 30 32 33 34 40 54 61 42 37 39 40 44 50 57 63 60 71 70 72 74 73 72 71 68 67 64 64 68 72 74 71 71 76 77
36 37 36 31 33 35 37 40 42 47 66 46 45 45 46 54 58 63 60 65 65 74 74 74 74 73 71 68 67 66 66 62 64 78 76 78 80 76
42 36 33 34 38 39 41 43 45 50 68 57 53 50 56 60 62 62 61 58 60 75 77 78 77 75 71 69 68 68 72 78 79 82 82 84 73 78
43 40 40 41 42 45 46 47 48 49 57 65 59 60 63 62 65 68 68 65 70 71 82 79 74 73 75 74 72 77 83 84 78 74 69 77 75 77
70 62 58 68 65 50 49 49 49 51 55 66 73 69 69 68 72 78 74 77 76 75 74 76 75 78 81 78 74 73 74 76 74 72 72 71 70 68
73 86 81 58 52 48 49 54 57 59 60 64 69 74 73 74 82 84 84 80 80 75 77 81 82 82 76 77 81 84 85 83 81 79 77 75 72 80
62 46 45 47 59 66 63 58 59 62 61 64 78 78 85 90 88 81 91 88 87 82 75 78 77 84 80 81 78 82 86 88 83 80 82 82 81 85
42 42 43 45 49 53 64 66 65 65 67 77 78 90 95 87 88 92 92 96 88 78 84 86 85 83 76 76 78 85 84 82 81 78 80 84 83 87
44 45 48 51 56 58 61 73 70 72 71 72 83 84 90 87 84 94 98 99 90 85 86 87 83 84 70 72 76 83 84 85 83 82 80 84 83 87
48 57 65 67 67 75 75 71 70 77 79 80 82 80 78 85 96 94 87 83 89 88 83 86 77 81 74 76 79 84 85 85 85 82 78 76 76 80
61 68 74 75 73 76 72 76 87 77 73 72 77 83 84 79 74 79 86 96 90 84 85 88 87 80 82 82 65 58 81 81 77 77 80 82 82 85
74 75 72 77 77 76 79 79 78 74 68 80 81 73 62 64 72 79 85 97 96 89 71 83 90 94 84 69 68 66 71 72 84 87 87 84 84 84
79 77 73 83 82 77 74 75 76 73 83 80 68 68 69 71 75 81 88 100 100 96 88 96 94 96 95 91 86 80 80 77 75 79 86 92 93 93
79 80 82 92 82 79 76 79 78 84 76 75 83 86 88 83 82 86 87 91 97 100 96 100 96 99 95 91 87 78 79 83 88 92 86 86 95 97
82 83 90 82 80 76 80 86 87 77 82 92 96 94 92 94 92 91 90 92 94 87 88 89 100 100 99 94 92 90 92 86 88 95 91 86 88 91
83 84 77 72 78 82 78 77 81 87 96 96 95 98 100 100 100 97 100 100 100 94 80 85 92 96 98 98 99 93 91 95 87 93 96 98 100 99
81 76 64 74 78 81 84 86 88 90 94 95 100 100 100 100 100 96 99 100 100 97 95 84 85 91 97 100 99 96 95 96 95 97 100 97 94 95
83 75 81 84 89 93 95 93 90 93 93 100 100 100 100 100 100 100 100 100 99 97 98 94 96 99 90 83 92 100 96 97 95 95 96 98 93 88
78 81 87 90 93 95 97 99 98 93 97 98 98 99 99 98 99 100 100 100 97 96 94 94 99 97 94 90 69 72 95 97 97 97 95 94 93 89
82 88 91 94 95 97 98 98 96 95 97 98 98 96 98 99 100 100 99 99 97 95 94 90 93 97 96 94 94 87 88 96 98 96 95 93 93 93
87 91 94 95 95 98 98 97 98 97 100 99 96 98 98 100 99 100 100 96 94 94 93 89 88 94 99 99 94 80 77 81 95 99 98 98 92 88
92 95 94 95 97 99 99 98 96 93 92 96 97 97 97 100 100 100 99 98 97 97 96 96 94 96 98 97 92 90 88 84 86 89 93 98 98 96
93 95 95 95 97 99 98 97 96 91 94 98 97 97 98 100 100 100 100 100 100 98 95 92 91 91 90 95 95 95 94 89 87 88 88 78 79 83

GFSNE_925_rhum_054.txt.gz
RH
32 26 30 46 48 34 28 28 32 48 53 39 35 36 39 41 43 52 55 59 74 71 72 75 75 75 74 72 70 69 67 65 64 74 62 67 73 77
36 41 35 37 40 42 41 38 39 42 54 40 39 39 43 45 51 56 60 63 63 72 74 76 77 76 74 71 70 68 68 66 64 68 70 74 79 72
42 44 43 44 46 50 58 57 59 66 63 53 50 46 49 53 56 59 64 65 59 57 77 78 80 78 75 74 72 70 72 74 74 75 77 78 90 78
46 50 54 60 68 69 78 95 81 53 56 67 57 56 59 58 62 67 69 68 62 59 81 82 79 80 80 78 77 79 82 81 77 78 77 77 81 75
60 66 77 88 95 96 94 62 58 52 54 63 66 66 67 66 70 74 75 70 71 68 77 82 82 85 86 82 78 76 75 75 76 74 74 74 71 70
82 89 97 97 74 61 57 53 57 60 59 64 68 70 73 74 80 85 87 81 81 74 71 74 84 81 80 78 82 85 86 86 83 80 79 78 76 75
98 93 85 52 56 84 80 71 67 66 67 68 75 80 82 84 90 84 91 91 93 80 73 74 76 78 69 70 76 80 86 90 87 81 77 78 84 86
92 53 48 50 54 53 59 69 69 68 69 77 77 84 92 87 85 90 94 99 87 75 81 86 82 82 76 71 70 87 86 83 84 82 79 84 86 88
43 43 48 54 55 55 59 76 76 76 77 80 88 87 86 81 80 91 99 100 95 87 87 89 81 81 70 64 70 82 83 86 87 83 81 80 80 82
52 61 65 66 62 76 77 75 74 80 82 81 83 79 78 85 91 91 88 86 90 89 86 90 76 79 71 72 66 81 83 84 85 83 79 77 80 85
62 71 77 72 72 78 75 89 92 79 76 74 82 88 87 82 78 83 87 97 92 85 86 90 89 80 82 79 64 61 78 78 77 79 81 83 81 80
76 74 70 80 79 78 91 85 80 76 72 85 84 74 62 64 70 80 89 99 98 90 71 81 84 92 91 66 67 68 69 70 84 88 88 86 87 84
78 80 79 89 85 86 76 77 78 77 87 85 70 68 70 73 76 82 88 100 100 97 88 96 95 96 95 92 84 80 81 75 74 78 85 93 95 95
81 84 87 85 83 81 77 83 82 88 78 75 83 83 86 84 78 80 81 85 94 99 85 100 97 99 96 91 87 78 79 83 89 92 88 86 90 95
84 89 88 82 78 68 88 90 91 79 84 94 96 94 93 87 84 81 81 84 87 83 82 85 97 100 100 95 93 91 92 84 88 92 85 84 84 89
83 84 73 69 74 84 77 80 82 86 98 96 96 92 89 90 90 92 96 91 100 86 82 83 88 95 98 99 99 94 91 94 87 89 94 95 98 100
89 65 66 74 76 80 82 84 85 87 91 93 95 95 92 96 93 92 96 99 100 97 96 84 86 93 98 98 96 94 94 95 95 96 100 99 96 97
73 74 80 84 88 91 92 91 88 90 93 97 95 95 98 98 99 99 100 100 100 98 98 96 98 99 88 83 89 98 98 99 96 96 99 99 94 91
75 84 88 91 93 94 95 96 96 93 95 94 96 96 99 98 100 100 100 100 98 97 97 98 99 97 94 89 70 75 98 97 99 97 96 95 95 90
84 88 91 93 94 96 97 98 97 95 93 95 96 97 98 98 99 100 100 100 98 95 95 91 92 98 96 95 94 89 92 98 98 97 95 95 96 95
87 88 91 93 95 97 98 98 98 96 100 99 96 97 95 100 99 100 100 100 98 96 94 90 89 94 97 99 94 80 79 88 98 99 99 98 94 90
90 94 92 94 95 98 98 97 96 94 91 93 96 96 95 98 100 99 98 98 98 96 97 97 94 95 97 97 92 90 88 85 85 89 97 99 99 97
93 96 95 94 96 97 96 96 96 94 90 96 98 97 97 100 100 100 100 99 100 98 96 95 94 93 89 93 94 95 93 93 91 92 89 76 82 84

GFSNE_925_rhum_057.txt.gz
RH
64 40 36 31 28 30 34 38 56 63 50 42 43 40 42 45 39 45 49 51 64 75 74 75 75 76 75 74 73 72 70 68 68 67 65 62 71 67
45 36 33 41 43 39 38 41 46 51 57 46 56 81 80 64 52 52 56 56 64 74 76 76 78 77 76 74 73 72 71 69 67 66 68 72 77 79
36 38 41 44 50 52 53 57 64 74 93 96 81 54 51 46 50 52 58 64 71 73 76 78 81 80 78 78 77 75 73 75 78 80 80 84 85 87
50 49 55 63 66 76 84 92 100 99 97 73 63 52 52 54 56 64 66 68 74 70 77 85 83 83 84 83 82 77 78 77 80 79 79 78 76 79
54 58 67 75 88 99 100 99 88 83 79 87 74 69 67 62 71 76 80 82 80 69 79 80 83 84 88 83 82 79 79 78 78 79 78 75 71 72
78 86 96 99 98 98 96 85 88 88 93 89 75 74 76 78 80 86 78 72 73 77 80 79 85 80 78 80 83 85 86 87 86 83 81 78 76 78
99 100 99 97 86 86 96 96 93 87 77 80 77 80 81 77 74 75 77 78 82 84 80 76 75 76 74 78 79 81 82 88 89 85 82 86 87 89
97 66 48 57 88 92 78 73 71 74 76 86 86 81 77 80 78 79 86 92 81 72 79 76 75 73 72 74 74 67 83 84 85 82 82 85 85 88
43 50 57 60 56 54 56 69 72 81 81 82 85 79 80 77 83 96 91 90 88 80 78 77 73 73 73 71 74 73 84 86 86 85 80 79 83 82
54 59 63 66 61 78 78 76 78 82 81 85 84 82 82 88 95 97 88 83 83 78 79 82 72 69 71 74 78 83 78 83 83 82 79 77 76 78
69 71 71 68 71 79 78 87 90 82 73 73 84 89 90 85 82 85 90 87 85 74 77 80 79 77 77 75 72 66 78 78 78 80 82 84 84 82
75 69 67 83 80 83 93 83 83 74 76 86 85 72 64 65 68 84 94 100 96 85 80 85 80 86 79 67 72 75 78 78 84 87 88 86 88 87
81 83 83 91 79 79 78 80 77 79 88 83 72 74 74 74 78 82 94 100 100 97 87 96 93 93 93 87 81 80 79 78 82 86 92 96 97 98
85 84 88 85 82 81 82 89 83 91 76 79 85 86 88 79 78 81 82 89 97 99 80 100 98 100 97 91 85 77 80 84 90 96 97 94 90 97
86 89 87 80 80 71 88 94 90 78 86 93 94 97 91 83 82 80 80 85 91 83 80 82 92 99 100 95 92 90 90 84 90 93 97 99 100 100
84 79 68 75 73 79 78 80 83 90 99 97 99 100 94 92 92 90 98 96 100 86 86 82 86 92 100 100 100 94 91 94 86 93 96 97 97 97
91 62 71 75 81 84 85 86 87 90 98 100 100 100 100 99 94 96 100 100 100 98 95 85 94 100 100 100 99 95 93 92 92 95 97 97 96 96
64 78 86 91 92 93 94 94 89 90 95 98 100 100 100 100 100 97 100 100 100 98 99 96 98 99 89 84 87 100 97 96 95 97 99 98 92 89
76 85 90 93 95 96 96 99 100 92 93 93 95 95 98 100 100 100 99 99 95 96 96 97 99 97 93 88 71 77 98 94 95 94 94 94 95 93
83 88 91 92 94 97 97 97 95 94 93 93 93 96 99 100 100 100 98 98 97 93 93 90 92 94 96 94 94 88 91 97 98 96 94 94 95 94
86 90 93 94 94 95 96 98 98 95 98 100 95 96 96 100 99 100 100 97 96 94 94 90 86 92 99 98 93 79 78 83 96 99 99 98 93 90
90 92 92 94 97 98 98 98 97 94 93 93 93 98 97 100 100 100 99 99 97 97 96 94 97 94 97 96 90 87 86 84 83 92 95 98 98 96
87 89 91 94 97 98 97 97 97 95 94 95 98 100 100 100 100 100 100 99 100 98 93 91 89 87 91 89 88 88 88 87 84 86 84 80 81 81

GFSNE_925_rhum_060.txt.gz
RH
86 83 81 80 50 41 34 36 56 71 68 65 54 56 56 56 46 45 74 48 69 71 74 75 77 77 78 78 77 75 73 71 70 69 68 68 65 67
92 77 73 61 56 40 42 44 46 53 76 59 62 62 62 72 84 61 48 67 68 70 76 79 79 79 78 77 76 74 74 73 71 70 69 76 78 78
91 92 82 73 65 53 52 56 62 63 78 89 92 99 98 80 51 64 67 65 58 62 68 74 76 81 81 80 79 78 76 75 73 74 78 81 80 81
68 62 63 60 65 76 83 88 97 99 98 99 97 97 86 87 90 84 75 66 61 62 70 77 84 85 83 84 83 81 80 78 76 74 75 75 70 69
52 55 68 75 82 91 98 98 98 98 98 99 86 87 96 92 90 71 64 64 65 65 64 69 74 79 82 85 83 82 82 82 79 79 79 78 76 74
64 68 80 89 97 98 99 99 98 97 99 97 88 81 69 65 70 69 62 60 58 61 68 72 77 77 79 82 81 84 85 86 86 84 83 82 81 76
95 98 99 100 98 95 88 94 97 97 91 83 71 65 67 60 57 60 61 59 65 70 65 62 60 62 64 64 66 69 72 78 84 85 82 80 82 84
100 99 96 79 95 98 93 94 82 75 81 75 74 62 59 58 60 60 64 73 75 67 64 66 63 60 60 60 61 69 78 82 84 84 83 80 78 80
77 66 82 71 54 56 54 77 76 81 81 75 67 63 63 62 76 86 81 82 83 73 67 68 63 62 60 58 62 69 76 82 86 87 85 82 77 76
64 69 69 73 72 75 70 77 82 81 80 77 73 68 67 70 78 89 86 74 72 68 66 69 64 64 64 65 67 72 75 77 81 83 83 80 78 80
79 76 71 67 68 82 77 96 78 72 70 74 80 84 88 89 85 79 81 77 76 70 70 72 70 71 73 76 72 69 73 78 80 81 83 84 85 84
68 69 75 81 83 82 80 72 71 63 63 82 75 71 68 67 81 86 81 90 92 85 69 80 79 82 78 67 73 74 76 75 79 80 83 86 87 87
69 70 74 89 83 82 80 69 68 72 78 77 66 63 68 72 77 80 86 99 100 97 87 95 89 90 93 87 78 78 78 81 81 83 89 93 97 96
70 72 76 85 82 82 81 86 85 89 73 67 70 74 79 87 95 100 98 98 100 100 88 100 99 99 97 92 85 77 77 83 89 94 96 98 98 97
74 84 83 77 74 74 84 94 91 76 74 77 81 86 93 100 98 99 100 100 100 100 96 88 100 100 100 98 94 91 88 84 90 95 96 97 96 95
83 74 62 66 68 74 76 77 78 78 82 84 85 90 95 100 100 100 100 100 100 98 94 94 96 100 100 100 98 94 94 95 88 93 95 95 95 98
85 60 64 68 71 71 74 78 81 82 87 90 96 97 96 96 100 100 100 100 97 96 96 95 98 98 98 99 98 97 95 94 90 93 97 97 92 95
63 63 67 72 74 75 78 80 86 90 92 99 100 100 100 100 100 100 97 96 92 92 93 94 95 94 90 85 88 100 96 93 92 95 98 98 93 90
66 73 78 81 84 87 89 93 96 97 100 100 100 100 100 100 100 100 97 94 90 87 86 90 97 96 94 88 70 73 91 97 94 94 93 93 94 91
82 84 87 88 90 93 98 100 100 100 100 100 100 100 100 100 100 99 97 96 94 91 89 86 89 93 96 94 94 88 86 89 98 95 93 93 95 94
83 87 90 94 98 100 100 100 100 100 100 100 100 100 100 100 100 99 98 92 89 92 90 88 88 89 92 97 94 78 75 80 87 98 98 98 93 87
84 90 94 99 100 100 100 100 100 100 100 100 100 100 100 100 100 100 99 98 94 94 94 96 96 98 98 95 90 86 81 80 82 85 86 92 98 93
88 92 96 100 100 100 100 100 100 100 100 100 100 100 100 100 100 100 100 100 98 96 94 96 91 90 88 96 87 81 81 82 82 84 84 84 87 87

GFSNE_925_rhum_063.txt.gz
RH
100 97 84 76 69 68 86 92 95 96 90 84 64 56 51 52 57 63 61 62 74 75 75 73 76 78 80 78 80 79 79 77 75 74 72 71 69 66
100 98 91 88 90 86 74 69 74 82 86 61 61 61 63 69 78 81 82 87 69 69 68 70 76 80 79 79 81 79 79 78 76 74 71 71 73 80
100 99 95 88 88 90 82 80 71 66 89 94 91 91 91 94 98 96 71 66 60 66 67 66 72 75 78 82 82 81 80 78 77 74 70 71 70 76
99 95 96 92 82 78 79 82 90 94 93 99 99 99 97 95 84 81 80 74 65 62 66 71 77 80 82 83 84 84 82 81 79 78 75 73 71 71
94 90 83 79 76 86 90 95 97 96 95 98 98 85 84 87 80 70 69 62 61 62 59 56 63 71 78 82 84 85 85 84 83 82 82 80 78 77
78 75 81 83 88 94 99 98 97 97 95 90 85 86 83 71 67 67 66 59 58 56 60 68 70 70 71 71 72 75 78 80 81 83 83 82 82 79
89 94 96 98 99 96 92 86 79 90 91 91 84 72 67 65 60 56 58 58 61 67 70 64 60 62 64 64 63 64 65 70 76 79 80 80 76 81
100 99 98 89 96 98 99 94 88 82 83 78 78 69 60 57 57 58 69 76 75 70 71 76 70 65 64 63 63 64 69 73 76 79 81 81 80 76
97 96 95 62 58 54 56 76 77 78 80 78 73 65 61 61 68 71 77 77 78 77 74 71 70 68 65 63 64 68 73 76 79 82 83 84 83 80
78 66 66 68 66 70 68 72 80 78 78 78 73 71 69 66 68 73 79 82 76 74 70 72 69 70 69 70 71 74 76 80 80 81 84 85 84 82
68 70 65 62 66 82 78 82 82 72 68 71 73 78 82 85 86 87 86 83 82 78 77 80 75 75 77 73 60 68 72 73 76 80 82 83 84 83
61 65 73 83 84 83 80 72 69 65 59 72 74 73 70 66 69 79 84 86 87 89 75 78 82 89 94 67 71 70 72 79 82 80 82 83 83 85
66 66 69 85 84 82 81 76 69 72 77 77 68 62 64 68 72 75 79 84 95 96 93 97 96 98 93 90 85 83 80 78 86 88 89 92 94 93
65 67 72 89 80 82 83 83 85 88 78 67 68 72 78 85 90 97 99 100 100 100 100 100 99 99 98 95 92 83 85 90 93 93 94 96 96 97
74 80 79 73 77 78 81 91 84 75 72 74 81 83 89 97 100 100 99 100 100 100 100 100 100 100 100 98 95 94 92 90 91 92 93 95 95 93
76 72 62 58 67 69 73 73 74 75 80 85 85 88 93 96 97 98 100 99 100 98 96 99 98 97 97 97 100 95 91 95 92 96 96 99 99 100
85 60 55 61 66 67 68 72 75 77 81 88 91 95 97 96 97 99 100 97 99 93 88 93 96 95 97 97 100 95 95 97 96 98 99 100 98 97
75 54 61 67 71 74 76 79 86 89 90 95 99 100 100 99 100 100 100 99 99 90 89 88 88 94 98 95 90 99 95 92 90 94 95 98 93 89
63 64 76 78 82 84 87 89 92 96 99 100 100 100 100 100 100 100 98 99 97 87 88 87 91 98 94 91 74 74 75 80 86 91 94 96 98 94
68 80 83 85 87 90 93 98 100 100 100 100 100 100 100 99 99 99 99 99 98 94 94 87 90 93 97 94 94 90 89 88 92 96 96 92 92 90
72 81 84 88 92 97 99 100 100 100 100 100 100 100 100 98 97 97 98 97 98 97 94 87 90 94 91 97 96 85 78 78 80 84 96 99 96 94
74 80 86 92 95 100 100 100 100 100 100 100 100 99 97 97 98 98 97 99 96 97 96 91 90 95 100 99 90 88 86 85 78 78 80 90 98 96
75 84 88 92 98 100 100 100 100 100 100 100 100 97 98 99 98 98 97 98 99 99 97 93 93 99 94 96 88 88 90 91 79 80 81 81 85 85

GFSNE_925_rhum_066.txt.gz
RH
100 100 100 95 79 72 67 68 79 99 98 99 97 94 92 89 72 74 67 63 64 67 72 89 82 78 79 82 82 82 81 80 78 76 74 74 72 69
100 100 100 97 87 82 83 88 92 93 97 96 95 91 89 83 83 69 74 76 76 80 83 75 73 72 77 79 79 80 81 80 78 77 75 72 70 70
100 100 100 100 97 93 91 91 93 96 96 97 90 89 84 81 82 86 87 89 77 70 72 70 71 73 78 81 83 84 83 82 80 78 76 72 70 75
100 99 100 99 97 97 94 92 94 96 94 99 100 99 92 89 92 96 82 63 56 59 67 68 72 72 71 77 82 83 83 82 81 79 76 76 74 72
100 97 99 98 96 97 97 100 97 95 90 91 98 95 96 80 68 64 64 66 63 62 64 59 61 70 76 80 82 83 84 84 84 83 81 80 79 78
98 94 95 94 95 98 99 98 98 92 93 91 81 80 74 72 71 68 65 63 60 58 58 63 72 73 70 69 71 74 74 74 75 77 78 79 80 79
97 96 98 98 100 100 99 99 90 82 82 83 86 81 74 71 68 62 61 62 62 58 66 70 66 61 58 60 63 67 70 72 73 75 77 78 76 76
99 100 98 99 99 99 95 93 87 84 84 80 81 77 69 61 59 65 71 72 80 72 72 75 71 68 62 64 66 72 71 72 75 78 78 79 78 77
98 94 91 66 57 53 62 76 73 78 79 80 81 74 69 68 67 67 68 73 77 74 78 77 73 71 64 64 67 76 78 80 82 83 83 83 81 78
82 88 80 71 62 70 72 76 80 78 77 78 77 75 73 70 72 79 83 83 81 73 78 80 72 67 63 65 59 69 78 83 80 79 81 83 81 82
67 63 66 70 79 80 82 84 79 72 69 66 69 73 80 83 85 86 88 86 89 82 82 85 79 76 72 62 59 64 78 77 83 88 86 82 82 82
63 67 76 83 84 87 84 80 71 67 61 74 76 74 72 65 70 71 75 83 84 90 85 84 87 95 90 74 76 75 76 73 88 90 90 89 88 87
66 66 70 85 85 82 82 78 74 77 82 77 75 64 65 68 71 74 77 81 84 90 92 96 98 96 95 93 87 90 86 79 82 85 81 92 98 95
69 72 74 81 75 79 77 86 88 90 81 72 70 74 81 84 87 92 96 98 99 99 99 100 99 100 99 96 90 86 91 92 86 85 84 83 91 94
72 81 77 69 75 76 79 86 87 75 74 75 82 84 85 91 96 98 99 98 99 99 100 100 99 93 100 97 96 93 87 86 83 83 89 87 88 87
74 70 64 66 71 75 73 72 74 76 80 82 83 90 93 97 96 96 97 97 96 93 82 85 90 96 99 99 100 100 99 98 89 85 87 82 81 90
81 55 54 61 68 70 69 71 74 79 85 88 91 96 98 99 98 98 98 96 99 100 99 84 80 82 90 89 100 98 98 97 97 97 100 99 96 98
68 57 60 72 75 79 81 85 87 91 93 95 97 100 99 98 98 98 97 97 99 100 100 87 86 96 96 94 86 100 100 100 94 88 88 97 94 91
64 64 74 79 82 85 88 89 93 97 100 100 100 97 97 97 96 92 93 95 96 98 100 88 97 100 94 92 75 73 75 82 89 95 96 97 95 93
60 66 79 83 86 89 92 97 98 99 100 100 100 97 97 97 99 98 94 96 94 95 98 98 92 95 97 94 94 91 89 92 96 97 97 97 93 90
65 72 78 83 86 91 98 100 100 100 100 99 99 98 95 95 98 100 98 92 94 97 95 94 87 89 90 92 96 86 84 80 84 90 93 99 96 90
68 71 75 81 87 93 99 100 100 100 99 98 96 95 94 96 98 99 100 99 98 97 96 98 92 98 100 97 94 92 86 83 82 87 88 91 94 95
66 68 73 82 87 92 100 100 100 100 100 100 97 97 97 98 98 98 100 100 100 99 99 96 95 97 96 99 94 91 91 94 82 88 84 81 81 78

GFSNE_925_rhum_069.txt.gz
RH
98 100 100 100 100 96 94 90 86 99 94 92 86 83 88 92 96 97 93 98 89 89 95 93 93 93 86 83 83 83 81 81 81 79 77 76 74 72
95 100 100 100 100 100 95 92 94 96 98 94 99 98 98 100 100 99 98 94 90 96 99 100 91 81 78 77 79 81 81 80 80 77 74 74 73 78
100 100 100 100 100 98 97 98 100 98 98 100 100 100 100 99 100 94 94 82 86 96 88 81 74 74 76 80 81 82 83 82 80 79 77 74 72 76
100 100 100 100 100 100 98 100 100 100 99 100 98 99 96 94 87 88 95 99 89 58 74 73 71 74 70 72 78 81 84 84 83 80 81 81 79 74
99 99 100 100 100 100 96 98 100 99 97 95 100 99 99 99 100 97 72 62 65 61 73 67 65 70 75 80 81 80 79 79 81 81 81 81 80 79
99 98 97 97 98 96 94 98 100 98 96 93 88 89 80 74 70 65 68 65 65 60 60 59 68 78 78 79 76 76 76 76 76 76 76 78 79 78
98 99 100 100 99 99 99 98 92 86 87 76 78 79 77 76 72 69 71 65 65 61 62 66 64 57 55 59 59 59 74 79 78 77 77 77 77 75
96 98 99 99 98 98 97 97 94 82 81 84 85 81 75 68 66 66 68 69 70 64 70 65 60 57 60 59 58 80 79 81 82 82 80 78 78 78
93 87 84 71 68 65 66 73 77 79 80 82 83 79 72 71 69 68 68 71 75 72 81 76 64 67 61 59 58 75 86 87 89 88 85 81 79 78
71 67 64 64 76 76 76 76 76 74 76 77 77 76 75 74 75 76 80 85 85 72 78 87 72 69 62 57 60 63 73 84 83 87 89 88 84 84
60 67 66 71 82 84 81 81 82 73 69 72 70 72 81 83 83 86 90 88 86 83 82 89 86 81 74 65 63 61 65 72 88 94 92 92 89 89
67 67 79 84 86 85 84 81 74 70 66 76 78 73 71 66 72 71 71 75 84 86 89 92 95 99 87 80 77 78 77 75 78 92 96 97 96 94
68 69 74 88 81 78 81 74 77 82 87 82 76 67 69 75 80 79 84 84 84 85 90 95 98 93 95 92 90 89 85 81 78 76 77 82 81 98
68 70 70 75 75 78 73 85 90 92 77 73 73 82 85 87 90 93 95 98 98 99 100 98 98 97 99 95 90 81 84 84 83 83 76 77 83 88
80 84 76 66 66 65 80 85 82 72 74 76 80 85 84 90 92 98 98 98 99 95 96 96 91 87 98 99 97 95 94 93 99 82 89 83 88 85
73 64 64 64 68 73 72 69 72 75 82 82 86 92 94 99 97 94 93 92 92 90 97 92 84 90 97 100 100 99 97 98 94 97 95 94 94 91
82 53 54 63 70 72 74 76 79 84 90 94 94 95 98 99 96 96 94 93 96 95 98 98 84 87 82 83 100 100 99 98 97 92 96 99 90 92
73 57 62 71 76 79 82 86 88 92 95 95 96 95 94 93 93 92 90 92 97 93 92 99 97 100 96 92 86 100 100 100 88 91 93 100 98 94
62 57 66 76 84 86 87 90 93 97 98 96 97 93 95 96 97 93 92 97 99 98 91 88 86 100 95 92 75 75 78 80 92 99 97 100 100 95
60 65 69 75 81 86 89 94 97 97 99 96 94 94 93 96 96 98 98 100 100 97 99 98 97 97 98 93 95 91 86 92 92 96 99 94 93 93
59 60 65 74 79 83 89 95 97 100 99 96 96 94 94 94 98 98 99 99 96 99 98 95 88 93 94 97 98 91 85 80 83 90 95 100 94 91
65 64 65 68 74 82 88 94 99 100 100 100 97 96 96 97 98 99 100 100 100 100 100 97 89 93 97 99 92 90 90 90 80 84 88 92 98 94
62 65 66 70 72 74 79 88 100 100 100 100 100 100 97 97 96 97 99 100 100 100 100 100 100 100 96 93 93 92 93 89 84 87 91 84 76 82

GFSNE_925_rhum_072.txt.gz
RH
94 98 98 100 100 100 100 100 96 98 98 97 85 93 93 92 94 89 94 100 99 99 98 98 96 98 95 97 90 88 86 82 81 79 78 76 75 73
94 90 88 100 100 100 100 100 100 99 99 92 94 96 96 95 100 100 100 100 100 100 98 99 99 100 96 90 84 80 82 82 80 78 76 73 73 76
98 99 99 100 100 100 100 100 100 100 99 100 100 99 100 100 100 100 100 100 99 99 100 99 99 88 79 78 80 81 81 81 81 79 75 74 72 70
99 99 99 99 99 98 97 97 99 100 99 99 100 100 100 99 100 99 100 98 98 99 99 86 78 75 76 75 74 80 82 83 79 80 76 77 78 77
100 99 98 97 96 95 95 97 98 99 99 97 100 100 99 98 99 98 100 100 84 63 70 80 74 71 73 76 81 81 80 82 83 83 82 82 81 80
97 95 95 94 94 95 98 98 98 96 95 94 97 97 96 97 92 87 77 69 66 63 61 59 62 70 81 87 85 83 78 79 80 81 81 81 80 80
100 99 100 99 99 97 94 94 95 92 87 91 92 84 80 80 74 72 73 70 64 62 61 58 64 64 62 58 59 58 58 83 85 82 82 81 79 79
99 99 98 95 96 99 99 97 95 91 86 85 87 82 78 73 71 69 68 68 67 62 70 63 61 56 59 59 56 58 87 85 87 87 86 85 84 80
70 63 55 55 62 65 68 76 79 81 81 80 83 81 74 71 70 69 70 71 73 71 80 68 62 61 60 59 61 64 91 93 92 90 89 89 88 88
57 57 59 73 80 85 78 80 76 75 77 76 74 75 76 76 75 78 79 84 83 76 78 87 76 69 62 62 61 77 93 91 91 92 95 93 89 90
68 76 67 70 85 92 81 79 79 72 72 79 80 80 84 85 83 87 90 94 80 79 85 91 88 87 74 68 68 86 67 63 76 94 94 95 97 94
64 61 77 85 85 82 82 76 78 72 72 71 78 74 71 69 68 76 72 75 80 88 92 91 95 93 88 78 73 71 65 68 72 90 92 97 97 95
66 66 70 89 77 76 81 72 79 90 89 84 76 69 71 79 83 84 87 89 87 85 86 91 90 92 94 89 83 80 79 75 75 76 76 73 74 98
65 71 70 73 75 80 76 84 89 89 75 73 76 84 86 86 89 96 91 95 97 97 93 94 99 95 97 96 94 79 81 82 85 86 73 72 77 81
75 84 86 71 65 60 77 85 82 72 74 79 81 82 89 92 94 96 97 96 96 96 95 92 94 94 99 99 98 99 98 95 97 82 79 78 80 80
71 74 55 66 70 75 73 70 72 75 84 87 91 94 95 98 99 94 94 96 92 92 91 99 98 99 100 100 100 100 97 95 92 90 88 86 85 87
83 55 50 62 70 72 75 77 80 84 90 93 93 92 92 93 92 91 90 90 98 96 90 92 100 100 96 98 100 100 99 98 100 92 92 100 96 94
78 65 58 72 77 80 82 85 87 89 93 92 92 93 94 93 93 89 92 92 100 95 94 88 87 92 91 84 81 100 100 99 94 84 91 100 99 96
74 65 58 63 71 82 86 89 91 92 98 95 95 92 94 94 95 93 93 96 100 98 92 88 92 100 96 94 79 76 79 80 83 96 100 100 100 97
52 56 61 65 70 81 85 90 92 96 96 95 93 94 95 96 97 97 96 99 98 96 97 93 96 98 98 93 93 89 89 92 93 96 97 91 96 97
74 69 61 61 64 72 79 85 89 96 97 96 93 95 94 96 98 97 95 100 98 100 99 97 84 94 97 98 96 89 87 87 90 93 95 100 93 88
65 69 60 62 64 66 69 79 90 89 96 96 95 97 100 98 99 99 99 100 99 98 100 95 90 94 100 100 94 92 88 89 87 84 84 93 95 94
48 54 55 60 64 69 71 73 76 85 88 95 99 100 100 100 100 98 100 100 100 100 100 100 99 100 100 100 96 91 90 93 92 94 94 81 77 81

GFSNE_925_rhum_075.txt.gz
RH
87 100 97 98 98 99 100 100 99 98 96 93 90 90 93 97 98 100 100 100 100 96 92 96 100 99 99 98 94 98 98 92 87 84 81 78 76 75
99 99 99 100 97 91 98 99 99 100 99 97 97 93 91 98 100 100 100 100 100 100 99 98 97 96 98 99 99 97 88 85 84 80 78 76 75 73
98 99 98 96 97 99 97 98 99 99 100 100 100 100 100 100 100 100 99 99 99 100 98 100 100 98 100 98 91 84 83 82 81 80 78 76 74 71
100 99 100 100 98 96 95 97 97 99 98 98 100 100 99 100 100 100 100 99 99 99 99 100 100 99 99 88 82 78 80 82 82 81 78 80 77 75
100 98 98 97 95 96 96 94 93 94 97 97 100 100 99 100 100 100 99 100 100 98 99 98 92 84 77 76 78 80 84 84 86 86 85 84 83 81
97 94 94 94 98 97 95 95 95 93 94 96 99 99 97 99 97 97 98 84 74 68 68 65 62 62 72 81 89 91 89 86 82 83 84 84 84 81
98 98 99 100 100 98 90 91 87 82 83 87 87 83 85 80 76 76 74 70 65 63 62 59 57 60 62 64 61 58 61 67 88 88 85 83 83 79
98 95 85 77 85 95 94 88 88 80 80 83 86 83 78 74 73 72 69 68 68 66 65 56 61 54 57 60 61 60 77 90 90 90 88 84 84 83
56 53 59 66 65 61 72 65 76 86 86 72 77 80 76 74 72 71 71 72 72 71 78 69 63 62 63 62 59 58 67 92 95 93 88 94 94 91
56 58 63 80 90 80 72 74 73 75 81 75 72 71 72 74 75 78 80 80 78 78 76 86 75 68 62 60 62 75 95 96 91 84 92 96 94 92
68 80 72 75 86 88 75 72 77 72 73 80 85 87 90 92 89 88 90 96 82 78 83 85 91 84 71 68 74 99 94 68 64 69 95 95 93 92
60 58 79 86 83 77 76 67 70 73 74 73 72 75 71 71 76 80 81 80 78 85 93 93 92 92 86 75 74 72 69 62 65 76 92 95 98 98
58 58 60 77 76 76 79 74 86 92 89 84 74 71 73 81 85 89 90 91 93 85 86 93 92 89 88 86 81 70 68 68 73 72 76 80 76 94
62 67 76 78 72 81 80 84 88 85 71 73 76 84 87 87 88 94 97 93 95 95 91 90 98 93 89 95 92 80 80 82 86 87 79 72 74 79
64 81 85 79 72 60 72 86 83 72 74 82 83 86 90 92 93 97 98 97 97 92 92 94 97 98 99 99 98 96 98 91 88 89 78 86 79 74
67 74 49 64 69 70 71 72 70 72 80 88 93 93 94 97 96 95 91 92 91 89 88 90 93 93 98 98 100 100 100 100 91 99 100 88 79 76
84 73 47 54 66 71 73 76 78 82 87 92 88 92 92 90 90 90 88 87 96 94 91 86 87 92 96 99 100 100 100 100 100 99 95 93 93 88
79 74 57 58 70 72 78 81 83 85 89 88 90 91 91 90 93 90 88 90 100 99 95 86 86 94 93 84 79 88 100 100 94 86 91 100 99 86
66 65 68 58 59 68 78 84 87 88 90 92 93 91 92 90 97 93 92 92 97 94 90 86 88 99 96 94 79 78 85 87 89 89 91 99 100 91
72 62 54 51 54 60 68 80 85 90 88 91 93 93 93 96 96 97 96 100 100 96 94 90 94 94 99 93 93 90 82 82 88 97 97 92 95 96
71 76 70 67 60 59 62 70 78 87 91 90 91 91 92 95 98 95 97 100 99 99 100 98 81 91 98 99 98 90 84 84 89 95 99 100 97 97
41 45 48 60 58 59 62 65 68 73 85 92 89 93 93 94 97 98 100 100 100 99 99 91 86 90 99 100 95 95 94 90 91 94 96 98 99 96
42 42 41 46 49 55 60 66 69 69 71 74 88 93 90 99 98 100 100 100 100 100 100 100 97 100 100 100 96 96 95 94 90 91 91 84 88 88

GFSNE_925_rhum_078.txt.gz
RH
97 100 100 99 98 98 96 97 100 98 93 94 94 89 87 87 93 100 100 99 99 98 100 100 100 93 92 98 99 92 95 91 89 96 98 97 89 79
99 98 98 98 99 96 96 99 100 99 99 99 98 98 96 98 100 100 100 100 100 99 100 93 90 98 98 95 99 98 97 98 97 96 91 81 77 76
98 98 97 99 98 97 97 96 95 97 100 100 100 99 99 100 99 100 100 100 100 98 96 94 94 99 99 100 98 98 99 99 96 87 80 78 77 76
98 99 100 100 97 94 93 94 92 93 96 99 100 100 99 99 99 99 99 98 98 98 98 99 98 99 99 98 99 97 93 85 83 81 80 79 77 78
98 97 96 94 94 94 93 92 93 94 94 95 100 99 100 97 98 99 99 99 96 98 97 99 98 97 95 87 82 81 82 83 88 89 88 87 85 82
97 95 94 94 94 92 91 90 90 90 92 92 97 98 91 96 95 95 95 90 77 69 67 68 72 73 73 76 82 88 93 92 92 87 86 86 85 83
99 99 100 100 99 97 89 85 83 81 78 81 80 82 85 80 77 77 74 70 67 65 61 59 56 53 49 52 53 57 59 60 80 88 89 85 83 82
93 82 76 71 87 87 92 89 86 67 72 81 82 81 78 75 74 73 69 68 68 67 63 55 56 52 51 52 55 56 60 86 92 92 91 90 82 88
52 60 69 76 64 60 63 63 69 89 79 64 68 76 77 76 74 72 72 71 71 68 73 66 61 60 64 65 63 59 58 80 94 96 92 88 93 94
54 57 75 90 88 72 64 67 71 82 81 73 69 69 73 78 78 82 85 86 84 84 82 84 76 68 65 63 59 64 92 97 97 91 83 91 96 96
67 80 72 72 83 88 60 59 74 72 72 81 84 87 85 81 91 90 88 91 85 77 84 88 92 82 72 68 75 98 99 95 76 66 93 95 96 96
56 56 86 87 81 79 63 56 66 72 78 74 70 71 69 69 74 79 81 83 81 82 92 91 91 93 86 76 78 76 80 74 67 68 72 87 98 96
52 53 52 80 76 78 73 77 88 90 80 73 70 71 75 84 88 89 92 93 91 86 90 97 89 86 88 88 82 77 73 69 62 58 68 74 75 94
56 60 67 74 74 75 75 81 89 84 68 70 73 77 86 88 88 88 92 97 92 96 90 95 98 92 90 96 92 82 82 82 77 76 81 78 71 75
58 68 87 69 71 55 62 88 84 72 71 77 82 84 89 92 91 96 95 96 96 97 94 88 93 94 99 99 97 94 96 97 100 90 80 73 76 73
62 71 53 56 61 62 66 72 70 71 76 86 90 90 93 95 92 93 91 91 91 90 89 87 91 95 97 95 89 99 98 98 92 98 100 97 74 73
89 75 54 43 52 62 67 70 73 76 80 86 91 89 88 91 88 88 89 89 95 94 89 80 82 88 93 96 100 100 93 95 93 100 100 97 85 79
84 77 67 50 50 58 65 71 77 80 82 88 89 89 91 91 90 88 90 94 99 97 93 85 85 88 87 79 77 81 86 86 96 100 94 100 97 73
86 69 56 60 58 55 57 65 74 77 87 88 89 90 92 90 93 89 88 95 98 96 91 88 91 99 98 95 79 82 82 80 85 89 84 88 94 75
84 74 68 63 55 50 50 55 62 77 84 90 89 88 88 91 93 94 94 98 99 96 94 91 91 93 97 93 92 90 82 79 80 84 90 90 89 92
65 66 58 60 61 63 59 56 58 64 72 81 93 92 93 90 93 97 97 99 97 100 99 97 86 92 97 99 98 92 84 82 83 91 94 100 98 93
61 55 40 39 42 49 55 54 60 64 65 68 75 90 95 94 92 100 97 99 100 100 99 89 84 89 97 100 95 94 90 88 86 88 97 98 98 95
34 35 38 38 36 38 47 52 56 58 61 62 64 66 70 88 97 99 100 100 100 100 100 100 96 98 100 100 99 96 96 95 95 96 88 84 87 97

GFSNE_925_rhum_081.txt.gz
RH
100 100 100 100 100 98 97 96 99 92 90 96 94 93 91 90 91 89 92 93 92 98 100 100 100 99 96 91 94 98 99 98 88 92 92 89 86 97
99 99 98 99 99 95 95 99 100 98 97 100 99 97 96 98 99 100 100 100 99 100 100 100 98 93 92 92 88 90 92 96 94 95 93 96 98 97
98 95 96 98 92 95 94 94 95 98 99 100 99 97 98 99 99 99 100 100 100 99 95 90 90 87 83 84 95 99 98 97 96 98 98 90 83 83
98 98 99 99 94 92 91 91 90 90 94 99 99 97 97 100 98 99 96 96 94 92 93 92 93 93 95 97 98 97 97 97 94 89 83 81 80 78
97 96 95 93 91 90 88 87 88 88 90 98 99 98 94 95 100 100 96 92 90 91 92 96 98 96 96 98 91 86 85 85 86 90 91 90 88 86
94 93 92 90 89 88 86 85 85 86 89 97 99 98 94 92 95 91 84 77 69 66 66 66 69 74 79 81 80 78 77 81 86 92 90 87 88 86
100 99 100 99 98 91 82 80 77 76 81 87 84 87 81 77 76 77 74 68 64 60 59 55 51 51 52 50 46 47 52 63 86 87 87 89 84 83
93 92 90 89 90 96 93 90 77 59 65 81 84 73 77 78 77 76 75 69 62 64 71 65 50 57 53 52 54 55 61 77 87 92 91 90 89 84
56 55 58 57 54 54 57 56 76 90 65 61 71 75 76 76 72 72 78 78 71 81 81 69 64 74 65 63 62 62 66 86 95 96 95 92 87 90
52 66 76 82 85 55 55 62 72 81 80 70 70 76 82 86 80 80 83 83 85 83 75 80 81 76 66 63 60 59 86 94 97 98 93 90 97 96
67 64 63 76 83 74 49 59 69 70 73 80 82 84 76 92 87 87 89 91 76 79 87 94 92 89 83 78 74 96 96 98 95 82 87 94 96 95
55 74 91 81 78 80 48 52 64 67 73 70 66 65 66 71 80 78 74 91 89 84 93 96 92 92 89 76 77 85 83 81 79 72 74 64 68 94
49 51 52 79 76 82 55 74 82 79 68 66 67 69 72 79 83 86 87 90 97 93 96 100 100 92 88 90 89 86 82 76 72 66 62 66 72 95
51 54 60 64 75 76 71 82 96 81 65 67 69 72 80 87 88 88 91 92 96 96 92 92 100 100 95 89 85 84 88 94 87 76 71 73 75 79
52 53 80 59 75 54 64 88 86 72 66 70 76 79 84 88 90 94 94 92 91 92 95 92 95 100 100 96 92 90 92 95 96 99 90 83 76 70
51 56 58 51 56 56 64 78 73 67 69 74 81 84 84 89 97 92 99 95 99 100 87 87 90 93 100 99 100 98 95 99 81 84 92 98 95 98
63 71 60 44 46 53 60 64 68 72 77 78 83 89 96 96 95 96 98 100 100 98 99 84 82 85 86 88 100 98 98 99 100 100 100 100 98 97
88 77 69 61 47 46 53 57 62 71 76 79 84 90 98 98 99 99 98 100 99 98 100 100 86 90 93 78 74 84 96 99 97 93 100 100 100 90
83 82 75 57 48 50 49 50 51 54 68 80 84 87 91 99 97 97 95 100 99 100 100 100 92 99 93 90 81 86 100 99 97 97 94 96 97 85
80 78 74 62 58 54 49 48 47 50 58 72 81 87 89 96 97 97 98 100 99 100 100 100 96 93 98 89 92 88 83 78 86 91 94 97 98 96
65 67 59 56 53 51 53 57 58 54 53 57 66 74 84 94 100 99 94 94 92 96 97 94 96 95 99 100 97 88 81 86 82 89 98 100 98 91
57 58 54 52 47 38 40 43 56 57 53 56 58 62 68 83 100 100 100 98 93 97 100 99 98 98 100 100 92 92 89 89 91 87 93 98 98 89
46 40 36 36 34 37 39 40 45 48 48 49 54 58 62 70 72 93 99 100 100 100 100 100 100 100 100 100 100 98 96 95 90 91 88 77 76 92

GFSNE_925_rhum_084.txt.gz
RH
100 100 100 99 95 95 95 95 93 91 85 90 91 99 96 90 99 99 100 99 98 100 100 99 98 97 93 92 92 94 91 96 92 93 94 90 88 88
99 100 100 99 98 99 100 100 99 89 77 99 100 99 93 98 100 99 100 99 99 100 100 100 99 97 91 88 87 86 82 93 95 98 97 91 94 96
98 97 98 99 98 100 99 99 98 99 93 99 100 96 99 100 99 99 99 100 100 99 99 95 93 95 96 91 88 92 93 93 93 93 92 96 95 95
99 97 98 99 100 94 94 94 98 89 97 99 100 100 97 99 99 99 98 97 97 94 94 93 92 92 90 90 92 94 91 94 94 94 91 88 85 83
99 97 96 95 96 97 98 97 97 95 95 90 98 100 94 93 99 95 94 89 84 83 83 86 87 88 89 95 95 89 87 86 87 88 89 91 91 90
99 97 97 96 95 87 90 92 92 89 90 88 88 90 87 88 83 76 71 69 67 65 62 56 56 62 73 82 83 81 79 78 86 88 92 92 87 87
100 100 98 94 91 88 88 83 80 76 80 82 78 80 70 64 63 65 60 58 61 66 57 54 55 56 56 58 54 48 47 56 74 85 89 87 88 85
97 96 95 94 98 97 91 85 64 63 72 73 67 53 57 59 61 62 65 58 52 71 61 51 61 56 63 66 56 49 53 67 84 86 89 86 87 87
70 65 65 62 66 73 49 52 87 51 57 58 52 54 56 65 78 83 70 68 58 62 67 53 61 58 68 67 59 56 57 63 85 95 94 88 88 87
73 77 76 79 73 62 63 73 77 78 73 66 65 69 76 80 78 87 79 74 73 72 77 69 66 62 67 68 64 57 68 85 91 92 97 98 94 96
65 71 71 71 88 50 66 73 62 72 74 67 78 69 65 88 82 83 81 79 65 62 80 80 77 78 77 75 76 93 92 90 96 97 96 96 96 96
70 80 71 73 79 58 55 53 58 60 77 74 70 68 71 82 92 82 86 92 83 79 86 90 86 85 85 79 86 85 82 83 80 88 90 94 93 89
53 52 60 76 76 83 56 68 69 75 68 67 67 72 78 84 86 88 92 97 98 91 92 97 99 95 87 84 82 86 88 86 83 89 94 80 68 79
52 56 62 60 75 79 77 72 96 75 67 66 69 71 78 86 98 99 98 99 100 98 99 96 98 98 95 91 84 83 85 90 96 100 100 98 91 68
57 57 65 65 82 68 66 85 93 80 66 70 73 83 93 100 84 92 99 93 92 92 90 90 97 97 99 94 93 91 91 92 94 99 100 100 100 100
57 73 72 59 54 59 61 80 86 71 68 72 77 84 94 100 99 98 100 98 99 100 98 88 87 94 99 99 97 95 96 95 98 98 100 100 98 97
68 73 68 51 50 57 62 64 68 74 78 82 86 89 89 90 92 94 98 99 97 95 96 98 100 100 100 100 98 94 90 92 94 99 100 100 100 99
81 70 61 56 50 46 51 56 64 72 75 83 89 90 90 90 90 95 98 97 96 94 94 96 99 100 94 91 88 97 93 92 95 98 99 99 99 97
83 71 69 70 65 61 60 64 70 71 77 93 93 93 93 92 89 88 92 95 94 92 92 96 100 99 90 86 74 84 96 96 96 91 88 89 90 91
80 76 80 82 72 64 66 70 74 75 80 86 92 94 95 93 90 87 86 87 88 88 90 93 97 100 97 86 87 87 88 93 92 88 89 90 90 91
82 85 80 73 63 56 58 62 67 72 72 79 90 94 95 94 90 89 88 84 83 83 84 85 87 94 96 98 96 86 82 83 85 93 94 95 95 90
73 69 57 51 52 53 52 48 52 58 62 75 77 85 94 94 93 92 88 86 84 83 85 90 96 99 98 100 93 88 86 84 88 93 97 99 97 87
72 63 53 50 48 48 49 45 41 42 47 50 55 64 75 92 91 91 88 86 88 89 91 93 93 94 98 95 95 94 94 92 84 83 84 87 94 99

GFSNE_925_rhum_087.txt.gz
RH
100 100 100 99 98 97 92 93 92 90 81 92 96 98 100 100 97 98 98 99 99 99 99 89 100 98 98 99 99 99 91 92 89 94 92 88 85 82
100 99 99 99 97 99 99 95 94 89 88 97 99 100 100 100 100 98 96 94 98 99 98 99 98 96 93 90 91 88 85 84 94 98 98 98 96 97
97 95 96 97 95 98 99 97 94 96 93 100 99 100 100 100 100 99 97 98 99 99 99 99 98 93 89 86 84 86 89 92 94 97 98 98 99 98
94 94 95 96 97 96 96 96 96 90 93 98 99 99 100 100 100 99 97 96 96 90 93 96 99 96 92 92 92 96 97 93 91 92 93 90 88 88
96 93 93 94 96 96 97 96 94 93 91 89 98 98 98 90 93 88 83 82 70 71 76 84 87 89 92 97 93 89 87 85 86 86 89 92 92 91
94 93 94 96 98 92 89 88 91 88 91 90 86 89 84 85 78 71 70 65 66 62 60 53 53 52 57 74 83 83 80 77 81 89 88 92 87 82
99 100 99 91 91 88 86 82 79 76 80 87 83 80 71 63 62 60 59 56 59 55 58 51 50 53 55 53 56 55 47 48 57 76 85 88 88 87
98 98 95 97 99 94 79 72 63 69 71 75 73 52 54 56 57 62 66 63 57 66 59 55 52 55 60 65 57 45 48 60 73 85 88 90 82 86
93 87 76 80 70 56 45 79 39 38 58 54 49 52 53 63 67 66 72 73 63 63 57 57 58 58 62 65 65 54 56 63 69 91 97 95 87 84
73 71 69 69 59 59 60 70 73 74 64 61 62 65 72 73 75 77 76 73 72 68 68 70 66 67 68 68 68 58 59 80 83 92 90 93 97 98
62 69 67 69 72 42 66 65 63 72 55 56 68 56 52 58 80 81 85 81 74 61 77 82 82 80 79 76 76 85 96 90 86 86 96 94 97 97
66 68 63 70 81 45 57 56 57 60 68 65 62 55 67 71 74 78 84 95 88 82 85 89 94 89 90 81 77 84 83 82 84 80 95 98 98 94
51 58 65 62 71 76 53 58 59 66 64 65 64 69 75 80 83 84 83 90 95 90 96 91 94 94 86 84 83 83 88 86 83 85 94 97 98 98
51 49 52 58 66 76 62 68 81 65 64 63 65 68 73 79 92 92 97 92 99 97 95 95 90 90 91 88 87 84 85 88 89 92 100 100 100 100
54 54 60 56 71 76 78 67 87 86 68 66 70 74 85 95 97 84 95 99 99 95 97 94 93 92 92 94 89 93 94 90 97 99 99 100 100 99
62 48 58 73 67 69 63 68 84 83 68 69 74 78 91 97 96 96 96 97 96 95 97 99 92 91 95 94 97 98 95 94 96 97 94 99 99 96
71 69 71 65 60 62 63 64 72 75 70 66 74 84 90 92 91 91 95 97 93 94 93 92 94 97 100 100 100 99 98 98 92 95 98 99 100 100
68 64 63 58 48 46 48 53 59 64 69 74 82 89 90 89 90 86 91 93 91 92 91 91 90 93 94 90 88 94 99 95 91 94 97 96 93 87
74 67 67 61 59 54 46 47 54 59 61 74 83 88 90 91 91 90 90 85 89 90 92 89 90 97 96 94 81 89 88 91 89 91 93 93 94 88
82 81 77 71 70 67 58 51 50 55 66 64 69 75 86 92 93 92 91 90 90 89 90 90 89 89 95 90 92 84 91 98 95 95 95 92 91 91
85 87 82 77 76 68 60 54 52 54 56 67 70 72 81 89 94 93 92 86 87 90 93 92 89 94 98 98 97 91 85 82 85 89 89 97 96 93
73 77 76 76 73 68 60 55 55 58 63 71 68 64 68 73 88 91 92 92 91 88 88 88 90 89 91 94 92 90 92 93 91 92 94 96 96 89
70 65 65 64 62 60 59 60 57 55 50 50 57 66 68 79 74 81 90 92 91 90 90 91 91 91 96 98 94 97 92 88 92 93 89 86 91 96

GFSNE_925_rhum_090.txt.gz
RH
94 100 100 98 100 100 99 95 91 95 94 98 100 100 100 95 96 99 95 98 97 90 87 87 98 99 98 99 100 99 99 99 95 90 84 89 90 88
96 100 99 100 99 97 91 93 96 91 93 98 100 100 99 98 99 98 95 91 91 98 95 98 93 93 90 88 89 92 94 91 90 95 95 96 97 97
92 98 97 92 95 97 98 95 92 90 95 100 100 99 100 99 99 99 96 93 96 100 89 86 85 85 90 89 85 83 84 88 90 94 97 97 99 99
92 93 93 93 94 97 98 97 97 97 93 98 100 99 99 100 98 97 96 92 88 91 99 97 89 86 89 89 89 91 94 93 90 91 93 89 88 92
92 92 91 94 94 94 93 90 88 89 93 92 98 98 98 92 91 86 79 73 64 68 79 68 78 86 96 97 95 93 90 88 88 88 90 93 92 90
91 88 91 93 95 94 93 90 90 88 90 92 91 93 87 82 75 72 69 63 63 60 58 54 53 52 54 72 84 86 83 80 83 88 76 77 78 78
94 94 94 94 94 90 85 83 82 79 85 86 88 82 74 67 66 59 59 57 64 59 48 52 50 47 57 54 56 52 50 52 54 56 68 82 82 78
99 99 100 99 94 88 80 73 72 77 80 79 79 73 57 57 59 61 64 61 65 65 54 46 53 54 58 58 56 49 49 56 63 73 81 86 82 80
95 94 92 86 66 55 76 36 40 54 53 54 52 54 57 60 64 62 70 68 67 64 44 60 61 60 65 66 66 60 55 62 67 84 97 90 88 85
81 68 57 56 53 58 58 59 60 45 50 55 55 57 60 60 65 61 68 67 73 67 61 71 74 65 68 70 72 69 72 82 86 94 94 86 88 92
66 70 69 74 50 52 54 67 66 55 54 62 63 57 55 64 76 78 84 80 78 68 73 71 88 82 73 78 73 80 90 86 85 83 82 96 92 99
55 57 64 70 68 43 52 57 59 59 55 47 47 45 54 71 63 72 79 83 89 85 88 74 82 87 85 84 84 82 82 81 85 86 91 97 97 98
57 65 63 60 74 48 51 52 57 57 66 62 62 63 70 72 74 72 70 70 86 90 99 90 90 90 88 86 85 81 84 83 85 84 83 90 100 98
48 48 49 66 65 71 52 69 65 66 59 62 64 68 72 79 83 85 85 89 91 93 93 95 95 91 89 90 86 84 83 84 86 86 95 100 100 100
50 49 53 55 52 72 79 75 88 67 64 63 65 68 71 75 87 89 82 95 98 98 96 98 98 93 89 94 91 93 92 91 92 94 98 98 99 100
61 54 50 51 54 60 68 72 74 78 75 66 66 73 80 86 83 79 92 94 95 90 92 97 99 99 96 94 93 97 99 97 91 89 93 98 99 99
75 66 66 72 61 56 60 56 52 68 80 69 67 73 82 86 87 88 90 92 95 89 88 86 90 92 94 96 100 98 100 97 87 92 94 93 96 100
80 72 65 62 59 50 50 54 55 66 69 62 64 75 80 88 90 90 85 88 90 88 87 90 86 91 90 88 92 99 100 94 83 89 92 94 94 91
67 63 61 58 59 56 46 46 47 47 50 60 66 72 79 84 90 91 90 89 88 86 86 86 88 89 97 92 81 80 96 92 94 94 88 88 91 87
72 70 67 63 64 62 58 54 47 46 52 58 63 69 74 80 88 90 89 86 89 89 86 85 87 87 92 88 83 79 80 90 92 94 93 81 83 82
68 76 73 64 65 70 66 62 57 49 46 52 58 59 59 67 81 84 87 93 91 91 93 91 82 79 89 96 98 94 87 86 86 94 98 98 100 94
68 65 63 63 66 73 71 68 65 60 59 60 59 56 58 62 69 75 80 88 83 80 83 84 87 88 88 92 95 92 87 84 82 82 90 97 99 93
72 65 61 58 59 64 68 68 67 63 59 55 51 51 59 62 61 68 70 77 82 83 84 88 90 91 93 96 93 97 99 97 93 90 88 78 84 96

GFSNE_925_rhum_093.txt.gz
RH
92 99 98 98 100 98 98 96 89 98 99 100 99 100 98 100 98 99 95 90 89 86 85 93 97 96 100 100 100 99 99 99 97 90 88 85 88 89
90 90 100 99 99 99 98 97 96 88 94 99 100 100 99 100 99 97 93 88 89 98 99 95 87 90 93 96 96 95 96 94 92 93 91 89 94 96
90 91 96 98 96 97 97 95 95 94 96 100 100 99 100 100 100 97 95 92 94 97 91 83 80 81 84 89 96 95 99 98 97 98 98 97 97 98
93 90 90 92 94 91 92 98 94 91 90 99 100 100 99 99 99 99 94 90 84 100 99 98 85 86 85 86 87 90 90 88 88 89 93 93 91 92
92 92 92 91 94 94 94 95 97 94 95 88 99 99 99 96 94 89 82 67 65 76 69 64 76 92 98 99 97 94 90 87 88 88 92 92 88 86
88 88 86 90 93 95 94 92 89 90 92 90 92 97 90 90 84 82 75 66 64 60 56 58 51 52 58 78 86 85 84 83 87 84 76 76 78 83
89 89 88 93 97 93 90 87 88 90 91 89 90 86 80 79 72 64 64 62 63 58 52 53 50 46 53 50 46 45 48 57 63 60 60 61 56 58
95 96 93 95 94 90 82 77 78 81 89 89 85 84 64 61 59 59 60 64 68 60 50 48 52 54 59 56 51 46 41 40 46 52 61 72 87 84
99 98 97 91 87 83 80 72 67 69 73 78 74 61 58 56 58 58 58 62 65 61 47 61 61 64 66 66 66 62 53 58 61 78 96 89 86 84
94 91 86 72 54 51 48 40 39 49 46 44 48 50 54 52 47 48 54 60 69 67 61 71 75 69 69 71 72 74 83 74 84 92 97 83 87 88
74 67 62 56 52 57 55 59 61 65 65 58 57 59 63 59 54 54 68 79 78 71 73 68 81 78 71 78 74 90 88 87 84 84 82 83 94 92
65 68 65 70 63 56 53 61 57 52 49 48 45 56 48 79 63 68 71 74 84 86 85 78 80 77 73 84 84 83 81 82 92 90 94 94 97 95
52 56 66 80 85 55 50 54 52 54 54 56 57 60 64 63 60 59 60 64 77 88 94 87 88 86 90 88 83 81 86 85 86 85 84 89 92 98
47 50 57 69 68 77 56 60 69 57 59 58 61 65 68 73 73 72 71 74 74 76 92 93 89 91 90 89 88 87 80 75 80 86 94 99 100 100
47 45 44 69 68 72 71 78 83 68 58 60 62 65 68 70 80 88 84 77 84 91 92 94 96 98 95 90 93 90 93 90 86 92 98 98 98 99
51 55 62 68 63 65 67 82 74 83 62 60 61 63 70 75 82 87 85 87 93 94 92 94 95 96 99 97 96 96 92 97 93 92 84 88 96 99
70 60 60 67 72 69 69 67 71 71 79 77 68 69 77 80 83 81 82 88 91 91 88 86 87 91 93 95 97 96 99 100 93 90 92 89 87 91
96 84 72 63 66 62 54 54 55 51 57 76 76 68 70 77 79 86 89 89 87 86 86 85 85 90 91 84 92 100 100 100 82 91 89 91 88 84
89 86 81 67 58 52 51 47 44 44 45 59 67 60 61 75 84 89 90 92 89 87 85 84 84 89 100 96 78 73 87 94 89 91 96 98 92 81
74 74 71 64 57 52 49 53 51 45 46 47 53 56 60 68 79 87 86 90 93 91 90 90 86 85 97 89 78 73 76 81 82 83 83 81 82 78
60 67 68 66 61 54 48 52 56 56 54 48 47 51 55 64 75 78 73 80 93 94 95 89 72 74 83 89 99 95 89 86 84 83 89 100 98 93
69 60 53 53 51 49 50 52 64 67 65 60 53 49 50 56 61 63 67 72 71 81 85 83 86 86 91 94 96 94 90 88 82 80 89 95 97 94
82 74 66 60 55 52 52 58 63 67 66 64 62 55 55 58 56 59 64 66 67 69 68 70 78 86 91 93 98 97 95 92 91 88 85 81 86 96

GFSNE_925_rhum_096.txt.gz
RH
86 85 92 93 97 97 98 92 95 97 99 100 99 100 100 99 99 98 95 89 90 89 92 89 97 97 100 100 100 99 100 100 100 100 95 89 89 86
93 89 91 98 96 99 100 100 97 93 96 99 100 100 100 98 98 99 96 89 87 99 96 85 87 89 94 99 100 100 100 99 99 98 90 85 87 88
89 91 92 98 99 100 98 97 98 97 95 100 100 100 100 100 99 98 93 90 93 97 84 79 80 85 85 87 92 96 94 97 98 98 94 88 89 88
90 90 90 94 94 95 94 92 94 95 94 99 100 100 100 100 99 98 95 89 91 99 92 86 85 82 86 88 92 90 84 84 85 88 92 94 96 94
90 94 95 91 87 88 86 91 97 97 93 90 99 100 100 99 99 95 81 71 81 81 65 70 85 99 98 98 97 93 88 87 86 88 92 95 92 89
92 91 91 87 88 92 95 94 95 94 95 90 95 99 96 98 94 87 76 66 65 62 57 53 52 61 73 88 87 86 85 86 87 83 82 81 83 85
88 86 87 84 89 93 97 94 91 92 96 93 92 96 90 94 83 82 73 68 61 54 51 53 48 46 50 47 43 44 53 71 75 72 63 55 48 43
93 92 92 94 94 93 90 88 90 91 94 92 91 89 81 80 74 67 67 68 65 60 47 54 50 53 54 53 52 45 42 42 44 46 52 58 68 87
98 97 95 93 94 91 87 83 80 84 88 86 87 83 69 63 61 61 60 61 62 59 44 56 58 61 62 62 64 60 53 58 60 71 86 80 87 84
100 98 95 90 77 75 56 64 58 59 59 72 77 64 54 52 53 50 47 55 61 62 55 67 71 67 69 68 70 81 85 64 79 87 96 82 84 84
94 89 78 71 54 56 54 46 56 59 54 52 49 49 51 47 45 43 52 64 80 72 68 63 77 75 71 72 76 100 94 94 87 85 83 80 80 88
77 69 67 62 60 78 58 61 61 70 67 64 80 72 82 69 59 54 56 76 80 78 76 75 81 70 82 84 81 80 81 85 95 93 98 94 93 91
58 63 65 76 83 71 55 54 52 48 48 43 47 52 63 64 56 56 61 57 72 77 82 79 83 81 85 86 85 82 80 83 82 82 80 81 89 97
51 49 52 70 83 80 70 48 56 55 56 57 57 61 63 61 60 64 62 60 59 61 75 83 80 85 87 88 84 86 90 84 77 79 85 88 97 100
47 46 46 59 82 82 80 80 83 70 62 60 59 60 59 61 73 79 78 73 70 72 77 84 86 88 93 93 89 88 96 87 85 84 94 96 96 97
60 48 48 53 87 84 76 79 81 82 65 56 55 58 66 71 76 80 87 89 84 87 92 92 92 95 95 96 97 94 91 94 95 99 97 89 82 90
67 60 68 80 80 74 67 66 80 78 82 70 64 62 64 70 77 84 90 84 88 82 85 88 92 92 93 96 99 94 92 97 100 86 89 85 76 82
95 80 63 60 61 60 62 59 63 67 72 71 78 74 65 71 77 84 87 84 89 88 85 81 84 86 95 86 84 94 99 100 98 91 96 96 87 83
92 100 95 81 71 60 55 56 51 45 51 53 58 78 75 68 73 80 86 91 95 92 88 86 82 88 100 99 76 89 92 91 87 90 88 89 87 78
81 91 92 87 76 69 59 52 47 47 47 47 52 58 71 72 68 84 84 87 91 91 90 89 89 87 90 92 73 66 72 76 79 79 80 77 76 70
66 74 78 76 71 65 59 54 49 44 48 50 46 47 50 58 64 69 79 86 86 86 92 86 65 63 82 87 99 97 83 78 80 80 81 94 96 92
68 61 58 57 55 53 51 51 54 54 52 56 57 54 50 50 55 62 76 82 75 88 76 64 69 80 89 100 98 96 92 88 83 83 90 95 95 94
95 91 86 81 75 69 62 61 60 57 54 54 61 64 63 61 55 60 67 67 68 62 62 74 85 88 90 89 92 93 94 94 94 88 75 72 77 94

GFSNE_925_rhum_099.txt.gz
RH
83 90 87 85 96 89 94 99 99 96 98 100 100 99 100 98 94 95 96 91 88 96 93 98 98 100 100 99 100 100 100 100 100 100 100 99 94 89
84 92 90 88 92 89 95 97 99 100 97 99 99 99 99 100 94 94 96 90 87 90 98 90 89 87 94 99 100 99 100 99 99 100 99 96 91 82
82 93 88 91 97 89 97 100 100 100 98 100 100 100 100 99 98 96 93 90 94 99 95 86 82 83 84 86 90 95 96 97 98 96 96 92 89 86
82 88 93 91 93 98 99 98 97 96 99 99 99 100 99 100 99 97 93 90 92 99 93 82 89 90 88 90 85 85 86 86 88 89 96 99 97 95
83 89 93 96 89 87 88 90 92 94 97 96 100 100 99 100 100 100 94 86 92 85 75 80 98 99 98 99 96 90 89 82 83 88 95 97 93 93
88 90 91 89 87 85 88 92 94 98 98 94 97 100 99 100 98 95 74 70 68 64 59 57 62 75 94 88 85 85 87 89 89 86 85 86 86 85
89 87 84 84 87 85 86 90 97 97 98 94 95 99 96 100 97 92 80 69 64 55 54 50 46 48 48 43 41 48 68 79 80 77 67 55 46 42
93 92 91 93 93 93 93 94 96 96 96 92 90 92 93 92 92 86 76 71 65 59 50 52 48 48 49 49 50 43 39 38 41 46 47 46 46 73
98 97 96 94 96 95 93 87 88 90 92 93 92 92 91 83 79 73 74 66 60 58 49 48 53 55 58 60 65 62 53 54 55 66 79 74 87 85
100 100 98 94 91 88 82 79 75 75 81 88 87 85 80 68 65 64 58 58 62 58 49 60 63 63 64 66 67 89 80 61 72 80 87 77 82 82
99 97 94 92 77 63 52 46 50 48 48 49 57 61 55 53 53 50 53 55 69 66 61 61 71 71 67 66 76 98 99 98 95 83 81 79 77 82
93 88 78 64 55 77 64 56 56 64 67 70 72 59 57 51 48 50 43 51 69 72 67 65 76 68 78 77 76 87 86 85 91 93 89 92 87 86
82 74 67 72 68 75 84 62 57 53 67 74 73 71 77 67 61 62 64 61 66 66 68 70 74 70 70 86 87 84 79 78 78 81 80 80 84 93
48 46 47 57 91 88 77 58 71 64 53 47 50 57 70 68 60 60 60 61 63 60 62 73 69 71 75 83 73 82 86 84 82 82 80 82 83 96
56 45 48 53 65 84 82 67 76 77 62 62 58 57 57 60 65 67 67 65 64 64 69 78 80 81 80 79 82 83 82 81 80 80 83 87 90 93
77 60 50 54 62 80 78 84 84 84 71 62 55 56 62 67 71 74 78 80 83 76 81 86 89 91 92 93 89 87 85 84 88 94 97 95 91 84
84 71 59 69 74 88 83 75 80 80 84 76 63 59 61 65 71 76 81 89 89 72 74 84 88 91 95 96 99 92 85 88 87 90 92 90 77 77
90 84 72 61 70 75 76 68 64 70 79 77 76 71 64 63 66 75 84 89 86 79 77 80 84 88 88 76 79 93 98 97 100 93 87 97 85 67
93 97 95 86 70 59 56 55 54 50 54 63 70 70 74 75 70 75 85 91 91 85 82 83 85 84 97 96 68 91 92 92 91 87 83 89 88 76
79 87 94 92 86 84 78 70 60 53 53 51 54 57 56 69 80 79 80 86 92 91 87 85 90 89 89 87 65 60 69 72 79 83 73 70 72 69
68 73 78 78 77 74 73 70 66 60 54 50 48 49 48 55 67 79 80 86 88 92 92 82 57 62 80 88 96 88 69 70 73 77 79 83 83 80
72 66 61 61 60 60 60 59 61 61 62 60 53 49 51 50 56 63 74 81 82 95 80 65 61 68 95 99 96 92 84 73 69 75 88 84 90 89
99 99 99 98 88 77 76 77 77 70 63 59 59 57 56 63 58 58 64 70 76 75 83 86 82 83 84 84 92 94 93 89 86 81 74 72 83 96

GFSNE_925_rhum_102.txt.gz
RH
57 68 78 80 85 87 98 95 99 91 98 99 98 99 98 98 96 96 90 89 88 87 86 99 99 98 99 98 100 99 89 84 100 98 94 98 100 99
59 74 88 91 89 86 91 95 100 100 95 100 99 100 100 99 99 97 92 90 86 93 85 87 89 86 93 99 100 100 100 100 100 100 100 100 98 90
66 77 88 90 87 91 96 94 99 100 100 100 100 100 100 100 99 96 95 93 90 100 96 83 85 89 89 88 97 100 100 100 100 100 99 98 95 86
72 78 84 91 94 94 95 96 98 99 100 99 99 100 100 100 100 97 94 95 96 99 99 94 90 98 99 88 84 88 91 92 94 98 99 96 98 99
80 84 89 93 95 94 85 88 93 96 100 100 100 100 100 100 100 100 95 92 94 88 86 93 96 100 100 99 95 94 89 85 85 91 97 97 96 98
85 89 91 90 86 86 80 83 86 92 99 100 100 100 99 100 100 99 90 86 85 77 64 64 76 95 95 88 87 90 92 91 90 92 91 90 88 86
91 89 86 84 85 86 87 81 84 94 100 100 99 100 100 100 99 98 82 73 68 64 62 53 49 56 52 45 47 65 81 83 82 79 74 72 73 75
92 91 90 90 90 93 95 95 94 98 99 100 98 95 94 95 98 95 86 73 69 62 53 52 48 48 48 46 49 39 36 42 53 58 51 42 37 45
96 96 95 93 93 95 95 93 93 98 99 98 96 90 90 91 92 91 82 73 61 54 52 52 49 50 54 60 68 56 46 44 49 56 55 60 87 84
98 99 99 96 92 91 87 85 81 77 82 90 93 91 88 83 86 82 80 72 66 56 51 49 55 60 63 65 67 95 60 66 69 96 82 80 84 84
98 99 98 95 91 83 64 52 52 55 54 54 68 79 81 65 72 70 66 62 65 60 52 56 65 66 67 67 77 96 95 95 98 91 84 79 80 81
96 95 93 87 66 73 74 55 53 58 69 70 64 63 58 60 60 57 49 50 58 66 59 57 70 70 70 72 78 91 90 96 95 93 88 85 84 76
89 86 79 72 85 76 79 76 58 58 70 71 78 77 70 68 53 49 51 50 48 58 60 62 70 69 64 83 83 80 79 79 80 82 82 81 88 88
56 48 46 48 62 91 79 76 60 78 62 60 67 67 77 63 62 62 64 62 61 65 54 65 62 63 65 77 72 81 84 81 78 78 79 77 77 82
74 60 44 47 52 88 88 82 78 81 71 59 48 48 55 69 62 59 60 61 60 59 65 70 68 66 69 65 68 76 81 79 82 80 77 76 74 76
89 82 65 52 53 63 81 82 81 82 78 65 58 60 61 64 66 67 70 70 70 66 65 68 73 78 80 79 80 78 74 69 73 75 80 86 88 83
86 86 75 58 60 63 74 74 76 80 88 84 72 61 60 65 70 73 77 80 81 66 66 77 83 87 90 92 92 81 78 79 74 79 84 83 82 79
92 87 81 73 59 60 66 74 72 70 73 80 80 79 65 63 66 71 79 82 84 84 81 74 82 92 92 67 66 77 80 77 74 88 95 91 67 62
88 90 88 84 76 65 59 60 60 51 51 60 68 79 79 78 71 71 74 82 91 89 83 79 84 88 95 94 60 76 77 58 70 88 94 97 85 62
83 84 89 90 83 78 77 77 74 71 66 58 58 58 62 72 81 83 79 78 86 88 88 83 88 90 87 83 59 57 61 68 78 80 74 75 74 68
76 75 75 75 75 73 72 71 71 72 69 66 60 57 52 56 64 67 75 85 86 88 91 79 51 59 77 88 91 83 71 64 63 64 67 75 79 79
99 98 93 87 74 67 64 62 64 64 66 66 64 63 60 55 56 60 69 80 84 92 76 63 64 72 91 95 90 84 79 69 68 66 68 68 73 73
100 100 100 100 100 99 99 96 84 76 74 73 72 69 69 73 64 61 67 71 75 76 81 88 84 85 83 89 92 92 88 78 76 74 70 73 88 84

GFSNE_925_rhum_105.txt.gz
RH
61 63 74 84 86 88 94 100 93 82 82 98 96 99 100 99 98 98 94 93 93 85 82 86 99 96 98 99 100 97 82 85 84 82 98 93 96 99
56 64 73 81 86 86 87 92 100 96 89 97 99 99 100 100 100 100 95 93 95 89 82 83 86 85 90 98 100 100 95 90 94 97 100 100 100 96
60 66 73 80 84 87 90 96 98 100 99 100 100 100 100 100 100 100 96 94 100 96 84 89 91 90 84 89 95 100 100 100 100 100 100 99 98 91
61 65 72 80 88 91 92 96 90 97 100 100 100 99 99 100 100 100 97 99 100 97 94 99 94 98 99 86 85 93 95 96 98 99 99 100 97 91
67 75 82 87 93 94 92 84 82 90 98 100 100 100 100 100 100 100 96 100 98 92 91 99 100 98 99 97 91 90 90 97 97 98 99 100 100 99
78 85 88 90 87 84 85 85 81 82 91 100 100 100 100 100 100 99 96 92 90 84 77 81 95 98 93 88 90 94 91 89 92 89 90 90 93 94
86 88 87 86 85 88 87 86 85 82 91 100 100 100 100 100 99 99 95 88 83 76 66 62 66 70 56 53 68 83 88 88 86 87 86 86 84 84
91 90 89 88 88 90 93 93 94 95 98 100 100 99 96 99 100 99 90 77 76 69 63 59 48 46 46 46 47 37 51 76 78 76 70 61 56 67
93 92 94 92 92 91 93 93 93 97 100 100 100 98 93 90 91 98 92 79 72 60 58 64 52 51 49 56 66 48 44 42 45 48 47 44 58 77
92 96 98 96 92 91 88 84 83 79 82 91 96 97 95 92 92 92 90 80 76 61 53 65 52 60 57 60 61 78 54 58 72 84 74 82 89 83
92 97 98 96 93 89 80 60 55 60 66 64 74 85 87 82 84 88 88 84 74 68 54 49 59 63 64 67 77 91 89 97 97 98 84 76 81 79
91 94 94 93 83 71 81 67 54 55 66 68 66 68 69 68 74 74 70 70 66 76 55 52 71 66 80 68 79 86 95 99 98 94 88 81 77 76
88 88 85 81 84 73 79 75 65 58 73 71 71 70 71 71 61 57 55 54 47 52 50 50 64 66 60 80 74 87 91 88 88 87 83 83 87 79
75 65 52 50 57 82 84 76 68 73 64 67 70 74 75 68 62 55 53 51 50 49 50 58 57 57 58 78 83 76 78 78 78 77 78 78 78 92
90 65 52 42 48 70 93 85 83 82 73 62 53 52 56 67 61 63 62 60 59 57 59 64 65 59 61 56 64 65 74 76 78 77 75 74 73 75
97 88 81 62 48 52 72 83 85 75 76 72 62 56 60 60 64 61 64 67 65 63 63 65 64 67 66 66 65 65 64 68 68 74 76 75 72 73
93 92 84 74 58 60 68 77 74 78 83 80 74 65 62 62 68 70 72 74 74 69 67 67 70 74 74 74 73 67 71 74 69 73 79 77 75 74
95 86 84 80 72 59 61 67 72 69 70 77 81 80 71 63 62 66 73 78 81 76 74 68 74 88 86 57 50 65 68 69 63 72 80 92 72 55
95 89 84 76 73 72 65 58 59 56 60 64 64 70 78 77 70 68 71 77 84 83 79 82 78 90 86 76 52 50 73 59 62 73 94 100 86 60
96 91 84 79 78 77 76 75 72 69 69 65 62 58 60 67 80 82 79 78 86 90 83 84 90 83 90 78 70 51 48 64 61 76 81 90 67 61
95 93 91 80 76 73 72 72 71 69 67 71 72 68 60 62 68 72 80 88 88 91 93 88 62 59 72 85 88 79 71 55 51 56 57 68 87 84
99 99 99 100 99 97 93 86 77 74 72 71 70 70 69 67 65 65 68 81 84 94 83 72 74 73 94 97 88 82 86 67 60 64 62 63 64 80
100 100 99 99 99 99 99 99 99 98 97 89 80 75 74 75 69 68 72 74 77 80 88 93 95 85 83 93 90 89 88 82 76 68 64 58 56 54

GFSNE_925_rhum_108.txt.gz
RH
65 88 86 88 91 91 89 94 79 68 56 69 82 100 100 100 98 98 98 96 94 87 83 80 82 90 93 96 99 100 86 87 86 86 84 96 98 94
60 70 84 88 90 89 89 84 92 87 79 82 97 99 100 100 100 100 99 99 99 94 85 81 82 81 83 92 99 100 90 85 81 82 89 97 97 98
68 79 82 86 81 84 88 88 90 94 89 91 96 98 100 100 100 100 100 97 100 99 96 92 87 85 82 84 91 99 99 100 90 89 100 99 100 99
74 76 77 81 87 88 86 87 94 98 100 97 99 100 99 100 100 100 100 100 100 100 99 98 97 90 88 85 83 94 99 100 100 100 100 100 97 94
77 79 83 86 85 87 91 90 89 90 97 99 100 100 100 100 100 100 100 99 99 98 99 100 100 92 85 86 86 90 96 99 96 100 100 99 99 98
70 78 86 87 88 92 92 90 89 85 87 92 100 100 100 100 100 99 98 98 96 92 90 92 96 89 88 86 93 95 92 97 94 97 99 98 100 99
88 91 92 88 83 89 91 87 89 89 88 94 100 100 100 100 99 99 99 95 91 87 78 73 83 77 59 62 80 88 91 91 93 94 95 96 95 93
94 95 94 86 87 89 89 90 96 96 98 100 100 100 99 99 100 99 98 90 85 79 73 66 60 65 52 56 42 46 79 82 81 82 83 84 84 84
95 97 94 90 89 92 89 90 92 94 100 100 100 100 99 94 93 100 97 87 80 73 69 65 64 66 48 57 54 41 38 50 66 68 65 58 58 75
94 96 95 93 90 89 87 85 84 82 80 87 98 99 99 95 94 94 94 88 79 64 64 70 75 67 67 75 62 63 51 52 67 61 60 74 72 74
93 94 96 95 92 91 85 72 64 59 64 70 72 86 94 95 91 96 94 87 84 79 62 69 76 75 75 76 72 87 74 78 95 96 90 93 88 80
90 90 92 93 91 85 89 74 64 62 58 69 67 70 83 80 82 90 97 98 83 76 72 72 75 76 82 70 76 85 97 99 97 98 88 83 81 88
88 88 88 86 89 82 79 77 71 66 70 79 77 80 85 84 74 70 73 81 72 70 52 55 74 82 83 90 76 81 88 91 96 97 90 93 90 86
84 80 77 73 69 73 85 78 69 62 74 72 74 77 79 83 58 52 52 55 54 48 45 46 56 68 77 88 83 79 84 86 83 84 83 81 88 89
95 73 48 38 41 50 88 83 81 83 73 69 68 79 82 71 58 62 60 59 56 57 58 59 56 57 59 82 88 86 95 73 72 74 74 76 76 85
99 91 81 75 53 61 68 92 86 80 76 75 73 78 64 59 73 68 64 63 71 68 62 63 63 63 62 67 72 87 68 88 75 76 77 78 76 79
100 98 92 83 75 68 74 76 81 86 86 82 88 86 82 74 81 71 72 74 89 94 76 62 61 61 60 66 82 76 86 87 69 63 72 87 83 73
98 92 86 82 76 66 62 67 76 79 82 91 95 94 89 88 92 78 72 91 97 96 94 90 85 91 85 53 47 79 80 88 86 74 83 96 94 87
96 94 88 83 78 77 74 74 80 80 72 69 72 79 80 84 90 97 98 98 96 96 98 99 96 94 80 70 71 44 76 87 92 94 89 95 89 87
100 99 99 93 87 84 84 76 73 72 68 64 65 64 64 68 91 97 96 94 92 92 96 100 100 95 86 76 75 65 48 77 88 91 95 94 82 64
97 98 99 99 97 88 80 80 76 74 72 73 73 74 73 74 83 89 89 93 92 91 90 92 84 59 75 86 85 75 61 46 52 57 68 90 89 82
100 99 96 99 100 100 99 97 95 90 84 82 78 77 76 77 81 84 85 89 89 91 89 84 82 79 99 100 88 77 76 81 63 64 62 57 64 83
100 100 100 100 100 100 99 99 99 99 100 100 100 98 91 89 88 88 88 87 84 85 86 92 95 100 99 100 94 86 80 83 85 86 69 51 58 57

GFSNE_925_rhum_111.txt.gz
RH
99 94 80 80 82 83 84 84 82 78 65 63 80 92 98 98 98 99 100 99 97 94 87 80 79 81 84 89 94 98 100 88 85 88 88 85 92 96
79 70 76 79 83 85 86 86 83 85 82 76 90 95 100 99 98 99 100 100 99 96 89 86 84 81 82 84 86 98 100 89 85 83 85 81 89 97
66 76 77 79 81 79 80 83 80 80 92 82 86 88 92 100 99 100 100 99 99 98 96 94 89 84 78 80 79 92 100 97 81 84 82 92 99 100
67 69 74 78 80 80 81 82 82 85 91 84 97 94 97 100 99 99 99 100 100 98 98 100 98 86 77 80 77 90 98 100 99 97 100 100 99 100
69 70 72 78 80 83 85 87 87 84 87 89 96 98 98 100 100 99 99 99 100 100 99 100 99 88 80 85 88 90 94 99 100 100 100 100 100 99
66 74 78 79 79 86 90 90 85 85 82 81 82 100 99 100 100 99 99 99 98 97 95 96 96 87 81 80 91 95 96 98 99 99 100 99 99 96
75 78 79 83 85 87 88 85 83 82 80 85 90 100 99 99 99 99 100 98 96 93 88 81 83 79 65 62 76 86 90 94 99 99 100 99 95 96
81 83 86 82 82 84 83 84 88 93 90 93 96 100 99 99 100 99 100 98 93 90 86 70 67 68 60 56 43 51 81 83 86 88 91 94 94 94
85 91 92 89 88 97 88 87 88 90 93 98 99 100 100 99 99 100 99 95 88 77 77 71 69 65 54 44 36 35 36 65 77 76 76 80 85 87
89 91 90 88 90 88 86 86 86 83 82 84 94 98 99 99 97 97 96 97 84 77 70 71 72 68 65 67 52 49 41 42 47 49 55 60 70 76
86 89 92 92 89 89 88 83 74 67 64 65 75 79 90 97 99 98 98 94 84 78 66 65 67 71 71 76 76 74 66 60 83 78 79 82 68 64
85 87 87 91 90 91 90 83 72 62 58 57 66 66 81 88 94 97 99 92 81 78 76 65 74 71 80 74 79 88 96 94 98 92 82 90 75 82
83 84 85 89 92 87 79 81 73 62 64 73 73 77 84 84 82 83 90 100 91 79 65 62 75 72 95 87 78 84 98 89 87 94 90 89 72 83
86 82 81 84 83 85 87 82 70 60 70 72 71 74 75 80 68 64 65 73 75 65 51 54 56 67 74 88 88 82 90 92 81 87 85 79 89 78
92 77 62 44 44 50 62 87 79 78 76 69 69 72 84 85 67 60 55 56 55 53 55 56 52 58 64 76 83 77 80 74 75 78 79 78 72 72
95 92 69 66 57 61 69 92 88 81 78 74 72 75 77 59 63 66 68 70 73 65 63 59 61 63 60 60 74 74 72 73 69 69 70 68 68 68
97 97 93 86 78 68 66 69 80 85 84 76 76 84 79 74 75 78 72 74 81 90 69 63 63 62 60 66 73 63 74 73 66 57 75 74 68 66
100 99 96 88 81 73 63 66 71 77 80 84 88 90 86 83 85 83 74 75 86 91 86 83 67 67 62 45 42 55 67 75 76 69 67 75 73 61
99 92 89 85 82 78 70 64 66 71 73 79 81 86 87 87 94 93 86 90 92 88 92 87 82 84 92 93 67 50 65 69 73 85 72 74 73 63
97 94 93 89 87 83 78 76 74 75 75 69 69 70 73 74 87 91 91 86 84 87 93 98 97 89 84 80 67 64 47 64 70 77 81 75 66 68
100 100 98 96 98 92 88 84 77 74 73 74 72 72 72 76 83 86 86 94 94 93 95 95 78 62 71 85 87 72 57 45 49 63 67 85 90 83
99 99 99 99 97 100 100 99 97 93 91 88 82 79 76 79 87 88 90 93 87 90 90 80 82 85 92 100 93 82 74 66 58 59 55 56 54 79
100 100 100 100 100 100 100 99 100 100 100 100 100 99 98 98 96 91 90 89 86 87 87 91 94 93 86 97 98 96 89 80 80 73 60 62 59 58

GFSNE_925_rhum_114.txt.gz
RH
100 100 92 91 85 73 77 79 82 90 82 88 92 96 93 93 96 97 94 99 98 96 91 85 81 78 75 92 93 87 91 96 95 92 81 81 88 91
99 98 91 80 78 75 78 81 85 86 90 82 92 91 87 87 85 90 95 99 100 98 91 88 87 81 78 76 75 77 95 100 86 89 89 82 83 89
94 84 76 71 71 77 79 83 83 84 87 85 83 84 90 90 94 99 99 99 99 99 96 93 91 85 82 76 75 78 94 100 86 80 81 80 80 88
70 69 74 75 76 78 79 81 83 84 84 92 92 92 89 100 100 99 100 99 99 100 98 100 99 93 84 77 77 87 94 100 99 81 87 85 84 96
61 62 68 71 68 76 78 80 84 84 82 86 85 84 92 96 99 100 100 100 99 100 100 100 98 92 85 77 84 92 96 98 100 99 100 100 99 90
64 65 68 70 73 80 83 86 87 84 83 83 78 89 97 93 99 100 99 100 100 99 98 97 96 91 78 68 79 92 97 98 98 100 100 100 100 99
62 64 66 69 75 80 84 85 86 83 80 82 82 96 99 97 99 100 100 100 98 97 94 90 83 83 72 60 55 82 92 98 99 99 98 98 99 100
64 69 71 75 76 77 80 82 86 84 84 85 87 96 98 100 99 100 100 99 97 93 92 86 72 71 68 57 40 43 80 89 95 100 96 98 96 93
76 80 84 82 85 84 83 84 83 84 86 90 97 99 99 100 100 100 100 99 94 86 84 76 69 66 64 52 43 36 37 78 80 84 91 97 95 94
74 79 86 85 84 90 88 84 84 84 83 83 88 96 99 100 99 99 99 99 95 88 78 70 72 68 63 55 49 50 46 44 64 73 72 83 86 87
80 83 87 88 87 86 86 85 83 75 68 64 65 75 80 88 96 99 99 99 92 84 75 66 70 64 65 59 54 55 59 69 71 63 82 74 73 76
80 82 85 86 86 88 89 86 80 73 63 56 56 60 66 85 99 100 98 96 87 83 78 66 72 58 64 71 70 78 77 93 92 87 97 76 77 66
78 78 78 86 90 90 89 85 79 69 61 58 69 70 82 80 88 98 92 99 92 81 74 75 76 73 91 82 75 85 98 87 97 99 86 78 76 82
80 81 80 81 86 90 88 77 77 72 60 69 72 73 76 77 72 69 78 85 98 95 74 55 54 63 74 86 72 66 92 94 86 89 85 77 75 78
86 83 79 70 73 76 73 79 85 68 64 68 69 70 76 79 76 65 56 61 64 65 61 56 56 56 62 64 81 78 71 71 76 74 81 80 74 76
97 93 83 58 42 38 47 62 88 78 77 77 70 70 73 76 72 63 63 62 63 61 59 60 59 56 57 64 79 60 54 57 60 79 78 75 72 69
100 97 92 82 78 71 59 60 68 85 84 80 75 77 78 72 65 77 73 71 71 78 61 61 64 64 63 63 60 53 51 57 51 52 66 64 60 61
100 99 98 96 90 82 74 65 63 76 82 80 80 79 83 81 78 82 80 72 72 73 87 76 66 62 58 44 40 42 46 52 58 64 63 65 54 48
99 99 99 98 96 88 78 69 61 62 67 76 79 84 88 90 89 89 82 74 75 78 90 94 87 73 91 92 57 49 49 50 65 75 67 67 57 42
100 98 98 93 89 84 81 80 70 66 72 76 76 76 79 85 92 93 90 86 81 75 84 94 97 85 76 74 64 64 54 52 66 66 63 64 60 62
99 99 99 100 94 87 87 84 78 75 74 76 75 71 69 78 84 82 80 85 93 93 91 87 68 61 72 85 90 75 61 54 48 50 55 75 85 83
100 99 99 99 99 100 99 97 96 95 92 89 85 85 82 84 85 84 87 90 84 85 86 78 80 84 94 100 99 89 77 67 60 59 54 60 60 75
99 100 100 100 100 100 100 100 100 100 100 100 99 98 98 99 98 98 98 96 94 92 88 88 89 92 90 90 96 94 89 86 80 74 66 63 63 56

GFSNE_925_rhum_117.txt.gz
RH
95 100 100 99 92 86 82 78 69 87 84 95 94 99 96 95 93 90 88 90 97 98 96 91 86 83 80 77 77 92 93 95 100 91 90 96 90 84
100 100 99 95 92 88 77 78 79 78 88 87 96 96 95 91 87 88 92 91 98 92 96 94 89 86 84 76 77 73 79 97 100 92 82 89 94 89
100 100 100 93 83 76 75 77 81 86 90 90 90 92 90 89 85 93 99 96 99 98 98 96 93 92 88 79 77 75 93 96 99 96 82 82 84 89
100 99 88 79 72 73 76 81 82 84 85 89 92 90 90 86 84 94 99 99 100 100 100 98 98 95 86 81 71 80 94 97 100 97 86 82 82 80
89 77 72 71 71 74 77 80 81 84 85 84 86 88 87 82 84 90 98 100 100 100 99 100 99 96 87 76 66 80 96 97 100 99 86 88 89 88
68 64 67 67 66 69 74 77 82 86 85 84 85 83 85 88 90 92 97 98 98 99 99 100 98 93 84 72 58 71 94 100 99 100 100 100 83 72
67 66 68 68 69 73 78 81 82 83 84 83 85 91 93 98 98 94 100 99 98 98 97 95 91 84 78 70 51 48 83 98 100 100 99 100 100 99
67 67 67 70 73 77 79 82 82 85 83 83 82 85 86 96 99 100 100 99 98 94 95 93 85 75 70 66 50 29 62 87 99 100 100 99 98 100
62 64 70 71 72 72 76 78 79 79 81 85 86 89 94 98 100 100 100 100 98 92 86 84 76 69 68 66 54 34 28 72 84 96 99 100 97 86
68 69 71 75 76 79 82 82 82 82 81 82 85 93 99 100 100 99 100 100 98 93 86 75 73 70 68 60 52 44 33 33 72 76 90 95 98 99
75 75 77 78 79 84 85 83 83 82 76 72 68 70 78 82 92 100 100 100 97 91 86 75 70 69 65 58 54 59 53 43 43 62 81 84 89 89
80 82 81 82 85 84 85 85 84 78 72 66 59 61 63 79 98 100 100 99 93 86 81 73 70 70 51 61 65 69 69 92 76 67 74 76 77 78
78 81 81 82 84 87 89 87 83 76 65 61 63 68 71 72 90 100 98 98 97 91 80 73 74 74 66 82 68 74 84 88 98 96 96 84 72 66
77 77 77 81 86 88 91 85 82 76 68 63 65 68 73 72 71 71 80 87 98 97 84 83 63 63 64 76 65 67 85 87 85 87 81 85 90 85
78 78 78 77 84 88 93 88 89 76 62 61 67 69 74 77 77 72 59 59 66 71 94 88 66 61 64 62 74 70 67 75 77 72 71 83 80 88
85 82 78 73 60 60 66 76 89 81 71 67 67 66 69 72 71 66 57 55 56 56 58 60 62 61 59 63 72 68 52 59 55 74 75 73 78 75
95 94 82 70 58 54 53 58 66 83 84 78 78 75 75 77 70 61 67 67 69 67 60 60 65 63 62 63 62 51 52 57 51 53 57 61 61 67
100 98 94 88 83 80 76 66 58 58 75 86 84 80 78 79 77 73 80 79 72 65 71 74 68 64 57 43 43 48 50 50 53 61 64 63 50 44
100 100 99 97 95 93 87 78 69 61 60 74 76 75 82 85 87 83 84 88 80 72 74 91 91 84 78 83 46 48 51 44 45 52 63 68 62 45
100 99 99 98 97 95 93 84 76 72 63 64 68 70 78 84 91 91 89 90 85 78 76 85 97 95 86 73 64 63 57 54 56 54 57 57 56 56
100 100 98 95 93 91 86 81 81 80 71 68 72 74 75 83 89 90 86 87 89 90 95 85 61 70 83 96 95 79 60 58 59 60 54 58 64 70
100 99 98 96 99 98 94 87 87 85 82 80 78 78 80 82 84 83 84 88 87 92 91 79 80 84 93 100 100 93 79 67 62 60 62 66 62 71
100 99 99 100 99 99 100 100 98 97 98 97 97 98 99 100 98 98 98 98 97 97 95 94 90 93 94 92 98 100 98 91 83 77 71 65 64 60

GFSNE_925_rhum_123.txt.gz
RH
78 79 79 78 85 91 92 85 84 97 94 92 94 95 96 95 93 88 82 79 81 83 94 96 91 88 90 87 83 72 65 74 99 96 99 100 98 97
86 90 92 92 92 97 100 100 95 85 95 86 96 96 99 96 93 88 84 83 85 90 98 99 99 96 94 90 82 70 65 65 91 91 98 93 92 98
91 98 98 99 98 100 97 96 99 94 76 89 95 98 100 100 94 91 86 82 86 91 100 98 100 100 97 90 83 68 64 62 94 99 92 88 86 79
95 96 96 100 100 100 100 99 96 83 74 88 95 100 99 98 94 87 84 81 80 89 99 98 98 99 97 91 82 66 61 68 95 99 100 93 86 83
96 95 93 97 99 100 100 97 87 82 82 80 97 97 98 94 90 85 82 79 76 85 96 98 98 99 99 93 80 65 54 65 94 100 100 94 90 83
98 99 99 99 100 100 94 85 79 81 82 84 90 94 91 92 88 87 85 79 81 88 89 93 97 98 96 88 76 66 52 52 94 100 100 100 93 93
100 100 100 100 100 96 83 78 79 80 84 87 89 94 93 93 90 90 93 91 88 90 91 92 93 94 91 82 70 69 59 36 91 100 100 94 85 83
100 100 99 97 91 86 78 75 73 74 81 87 88 91 88 89 89 93 99 99 97 92 87 84 83 84 82 74 68 58 50 28 82 95 100 100 100 99
96 88 88 84 78 78 79 81 80 82 78 76 80 82 82 82 87 98 99 99 97 97 94 87 82 78 74 70 67 56 40 26 73 92 96 99 100 100
87 82 79 81 79 71 74 72 81 78 78 79 81 80 82 84 93 98 97 99 99 99 96 89 81 75 71 70 68 58 42 34 56 81 94 97 100 100
81 82 77 71 71 70 80 77 77 79 80 80 79 82 86 90 99 99 99 100 99 98 93 88 80 74 71 71 72 57 50 55 52 80 84 95 100 100
78 76 77 77 86 92 72 76 80 80 82 79 74 70 68 73 88 93 97 100 99 93 91 86 75 75 69 47 50 57 61 69 73 71 78 81 91 100
81 83 81 79 79 79 75 78 78 81 80 76 71 65 64 66 78 99 99 100 99 96 83 78 73 63 72 66 53 58 67 79 80 75 61 65 74 84
78 78 79 81 80 82 83 83 85 81 79 74 68 66 68 68 72 88 97 95 95 100 98 86 83 66 56 52 53 56 70 80 86 84 83 62 52 60
77 75 78 81 85 89 86 86 88 81 75 72 67 60 59 67 72 70 66 68 80 93 98 95 89 89 81 59 60 60 58 64 74 78 86 80 74 65
80 79 80 83 86 86 93 96 94 83 75 72 62 59 66 71 77 76 72 60 56 61 66 84 93 94 78 60 61 59 64 56 52 62 80 75 75 69
84 84 85 89 97 96 99 97 94 90 84 73 60 60 66 67 75 83 76 62 59 62 59 62 66 66 65 64 60 53 56 62 60 58 56 52 58 62
93 91 95 95 99 100 99 99 97 94 85 78 68 67 66 67 74 82 75 72 69 68 71 72 69 69 63 53 58 62 62 55 56 59 63 61 46 43
99 95 94 96 93 91 87 84 81 73 65 78 76 73 76 75 82 86 86 92 85 82 76 73 85 88 77 84 60 63 67 56 54 52 52 57 55 44
100 99 95 92 89 84 80 68 58 55 64 69 83 80 82 84 86 87 88 87 85 83 84 82 89 93 85 75 65 73 70 66 64 63 65 62 53 43
100 100 100 100 99 97 91 98 100 99 89 65 62 72 86 87 85 85 85 83 89 94 95 84 68 77 89 98 91 80 68 64 65 64 69 71 62 52
100 100 100 100 100 100 100 100 100 100 100 88 67 66 73 76 77 86 87 94 100 94 72 86 94 94 100 99 99 97 81 78 79 80 73 66 60 58
100 100 100 100 100 100 100 100 100 100 100 98 78 68 68 75 80 81 75 73 78 92 90 91 96 100 96 97 100 100 100 92 92 84 76 78 79 79